T10BNORTH Weather Reports


Display with metric or nautical units.
time (UTC)temp
F
wind
direction
speed
MPH
gust
MPH
rain 1hr
in
rain 24hr
in
rain mn
in
humidity
%
barometer
mb
20260506232804 54 145 0.0 1.0 0.00 0.59 0.59 100 1003.1
20260506232703 54 145 0.0 1.0 0.01 0.59 0.59 100 1003.1
20260506232600 54 145 0.0 1.0 0.02 0.59 0.59 100 1003.1
20260506232452 54 145 0.0 1.0 0.03 0.59 0.59 100 1003.1
20260506232253 54 145 0.0 2.0 0.04 0.59 0.59 100 1003.1
20260506232151 54 145 0.0 2.0 0.05 0.59 0.59 100 1003.0
20260506232051 54 145 0.0 2.0 0.06 0.59 0.59 100 1003.0
20260506231952 54 145 0.0 2.0 0.08 0.59 0.59 100 1003.0
20260506231749 55 146 0.0 2.0 0.08 0.59 0.59 100 1003.0
20260506231649 55 146 0.0 2.0 0.09 0.59 0.59 100 1003.1
20260506231549 55 146 0.0 2.0 0.09 0.59 0.59 100 1003.1
20260506231451 55 141 0.0 2.0 0.10 0.59 0.59 100 1003.1
20260506231251 55 175 0.0 2.0 0.11 0.59 0.59 100 1003.1
20260506231149 55 175 0.0 2.0 0.12 0.59 0.59 100 1003.1
20260506231050 55 175 0.0 2.0 0.12 0.59 0.59 100 1003.0
20260506230950 55 151 0.0 2.0 0.12 0.59 0.59 100 1003.1
20260506230848 55 151 0.0 2.0 0.13 0.59 0.59 100 1003.1
20260506230649 56 149 0.0 2.0 0.13 0.59 0.59 100 1003.1
20260506230551 56 142 0.0 2.0 0.13 0.59 0.59 100 1003.1
20260506230449 56 162 0.0 0.0 0.13 0.59 0.59 100 1003.1
20260506230249 56 117 0.0 0.0 0.14 0.59 0.59 100 1003.1
20260506230151 56 117 0.0 0.0 0.14 0.59 0.59 100 1003.1
20260506230049 56 117 0.0 0.0 0.14 0.59 0.59 100 1003.0
20260506225950 56 112 0.0 0.0 0.14 0.59 0.59 100 1003.0
20260506225746 56 111 0.0 0.0 0.15 0.59 0.59 100 1003.0
20260506225645 56 111 0.0 0.0 0.15 0.59 0.59 100 1003.0
20260506225547 56 114 0.0 0.0 0.15 0.59 0.59 100 1003.0
20260506225446 56 115 0.0 0.0 0.15 0.59 0.59 100 1003.0
20260506225247 56 115 0.0 0.0 0.16 0.59 0.59 100 1003.0
20260506225142 56 115 0.0 1.0 0.17 0.59 0.59 100 1002.9
20260506225042 56 115 0.0 1.0 0.17 0.59 0.59 100 1002.9
20260506224943 56 115 0.0 1.0 0.18 0.59 0.59 100 1002.9
20260506224742 56 115 0.0 1.0 0.18 0.59 0.59 100 1002.9
20260506224643 56 115 0.0 1.0 0.18 0.59 0.59 100 1002.8
20260506224541 56 115 0.0 1.0 0.18 0.59 0.59 100 1002.8
20260506224441 56 115 0.0 1.0 0.18 0.59 0.59 100 1002.9
20260506224242 56 115 0.0 1.0 0.18 0.59 0.59 100 1002.9
20260506224141 56 83 0.0 1.0 0.18 0.59 0.59 100 1002.9
20260506224041 56 83 0.0 1.0 0.19 0.59 0.59 100 1002.8
20260506223941 56 83 0.0 1.0 0.19 0.59 0.59 100 1002.8
20260506223741 56 82 0.0 2.0 0.20 0.59 0.59 100 1002.9
20260506223643 56 34 0.0 7.0 0.20 0.59 0.59 100 1002.9
20260506223541 56 34 0.0 7.0 0.20 0.59 0.59 100 1002.9
20260506223443 56 34 0.0 7.0 0.20 0.59 0.59 100 1002.9
20260506223342 56 34 0.0 7.0 0.20 0.59 0.59 100 1002.9
20260506223241 56 33 0.0 7.0 0.20 0.59 0.59 100 1003.0
20260506223143 56 34 0.0 7.0 0.21 0.59 0.59 100 1002.9
20260506223041 56 34 0.0 7.0 0.22 0.59 0.59 100 1002.9
20260506223004 56 49 0.0 7.0 0.22 0.59 0.59 100 1002.9
20260506222942 56 355 0.0 7.0 0.22 0.59 0.59 100 1002.9
20260506222742 56 355 0.0 7.0 0.22 0.58 0.59 100 1002.9
20260506222642 56 49 0.0 6.0 0.22 0.58 0.58 100 1003.0
20260506222542 56 226 0.0 6.0 0.22 0.57 0.58 100 1002.9
20260506222442 56 294 0.0 6.0 0.21 0.56 0.57 100 1003.0
20260506222242 56 294 0.0 6.0 0.21 0.55 0.55 100 1002.9
20260506222142 56 294 0.0 6.0 0.20 0.54 0.55 100 1002.8
20260506222040 56 263 1.0 6.0 0.20 0.53 0.54 100 1002.8
20260506221941 56 261 1.0 6.0 0.18 0.51 0.52 100 1002.8
20260506221742 56 279 1.0 7.0 0.18 0.51 0.51 100 1002.6
20260506221641 56 190 2.0 7.0 0.18 0.50 0.50 100 1002.6
20260506221542 56 134 2.0 7.0 0.18 0.50 0.50 100 1002.5
20260506221442 56 148 2.0 7.0 0.17 0.49 0.50 100 1002.6
20260506221343 56 155 2.0 7.0 0.17 0.49 0.49 100 1002.5
20260506221242 56 119 2.0 7.0 0.16 0.48 0.48 100 1002.5
20260506221208 56 180 2.0 7.0 0.16 0.47 0.48 100 1002.5
20260506221043 56 130 2.0 7.0 0.16 0.47 0.47 100 1002.5
20260506221001 56 136 2.0 7.0 0.16 0.47 0.47 100 1002.6
20260506220941 56 126 1.0 7.0 0.15 0.46 0.46 100 1002.6
20260506220741 56 151 1.0 6.0 0.15 0.46 0.46 100 1002.6
20260506220641 56 126 1.0 6.0 0.16 0.46 0.46 100 1002.6
20260506220543 56 138 1.0 6.0 0.16 0.46 0.46 100 1002.6
20260506220437 56 163 1.0 6.0 0.15 0.46 0.46 100 1002.6
20260506220237 56 171 1.0 7.0 0.15 0.46 0.45 100 1002.6
20260506220138 56 123 1.0 7.0 0.15 0.47 0.45 100 1002.6
20260506220037 56 150 1.0 7.0 0.15 0.47 0.45 100 1002.6
20260506215937 56 160 1.0 7.0 0.15 0.47 0.45 100 1002.6
20260506215736 56 139 1.0 7.0 0.14 0.47 0.45 100 1002.8
20260506215634 56 180 0.0 7.0 0.14 0.48 0.44 100 1002.8
20260506215535 56 136 0.0 7.0 0.14 0.48 0.44 100 1002.8
20260506215435 56 122 0.0 7.0 0.14 0.48 0.44 100 1002.8
20260506215230 56 138 0.0 6.0 0.13 0.48 0.44 100 1002.8
20260506215125 56 142 1.0 6.0 0.12 0.47 0.43 100 1002.8
20260506215024 56 155 1.0 6.0 0.12 0.48 0.42 100 1002.8
20260506214921 56 153 1.0 6.0 0.11 0.47 0.42 100 1002.8
20260506214719 56 167 1.0 6.0 0.12 0.48 0.41 100 1002.8
20260506214617 56 143 1.0 6.0 0.12 0.48 0.41 100 1002.8
20260506214517 56 133 1.0 6.0 0.12 0.48 0.41 100 1002.8
20260506214418 56 174 1.0 8.0 0.12 0.48 0.41 100 1002.8
20260506214211 56 137 1.0 8.0 0.12 0.48 0.41 100 1002.8
20260506214111 56 163 1.0 8.0 0.12 0.48 0.41 100 1002.8
20260506214011 56 157 1.0 8.0 0.11 0.48 0.41 100 1002.8
20260506213913 56 164 2.0 8.0 0.12 0.48 0.40 100 1002.9
20260506213700 56 150 2.0 8.0 0.11 0.47 0.40 100 1002.9
20260506213559 56 146 2.0 8.0 0.11 0.47 0.39 100 1002.9
20260506213458 56 144 2.0 8.0 0.11 0.47 0.39 100 1002.9
20260506213400 56 132 2.0 8.0 0.11 0.47 0.39 100 1002.9
20260506213153 56 140 2.0 8.0 0.10 0.47 0.38 100 1002.9
20260506213054 56 202 2.0 8.0 0.09 0.46 0.38 100 1003.0
20260506212954 56 192 1.0 8.0 0.09 0.46 0.37 100 1003.0
20260506212854 56 134 1.0 6.0 0.09 0.46 0.37 100 1003.0
20260506212650 56 128 1.0 6.0 0.08 0.45 0.36 100 1003.1
20260506212627 56 138 1.0 6.0 0.07 0.44 0.35 100 1003.1
20260506212448 56 170 1.0 7.0 0.07 0.44 0.35 100 1003.0
20260506212413 56 147 1.0 7.0 0.06 0.43 0.35 100 1003.0
20260506212351 56 109 2.0 7.0 0.06 0.43 0.34 100 1003.1
20260506212135 56 162 2.0 11.0 0.06 0.43 0.34 100 1003.1
20260506212037 56 171 2.0 11.0 0.05 0.42 0.34 100 1003.0
20260506211836 56 150 2.0 11.0 0.05 0.42 0.33 100 1003.0
20260506211630 56 169 2.0 11.0 0.04 0.41 0.32 100 1003.0
20260506211527 56 153 3.0 11.0 0.05 0.41 0.32 100 1003.1
20260506211426 56 161 3.0 11.0 0.05 0.41 0.32 100 1003.1
20260506211328 56 157 3.0 11.0 0.05 0.41 0.32 100 1003.1
20260506211124 56 134 2.0 10.0 0.04 0.40 0.32 100 1003.0
20260506211021 56 139 2.0 8.0 0.04 0.40 0.31 100 1003.1
20260506210922 56 133 2.0 8.0 0.04 0.40 0.31 100 1003.1
20260506210849 56 155 2.0 8.0 0.04 0.40 0.31 100 1003.1
20260506210826 56 159 2.0 7.0 0.03 0.39 0.31 100 1003.1
20260506210611 56 129 2.0 7.0 0.03 0.39 0.30 100 1003.1
20260506210511 56 132 2.0 7.0 0.03 0.39 0.30 100 1003.2
20260506210412 56 198 2.0 7.0 0.03 0.39 0.30 100 1003.1
20260506210311 56 146 2.0 7.0 0.03 0.39 0.30 100 1003.1
20260506210106 56 167 2.0 7.0 0.03 0.39 0.30 100 1003.1
20260506210006 56 132 2.0 7.0 0.03 0.39 0.30 100 1003.2
20260506205905 56 164 2.0 7.0 0.03 0.39 0.30 100 1003.2
20260506205805 56 155 2.0 7.0 0.03 0.39 0.30 100 1003.2
20260506205600 56 175 2.0 7.0 0.03 0.39 0.30 100 1003.2
20260506205459 56 130 2.0 7.0 0.03 0.39 0.30 100 1003.2
20260506205400 56 156 2.0 7.0 0.03 0.39 0.30 100 1003.2
20260506205259 56 144 2.0 7.0 0.03 0.39 0.30 100 1003.2
20260506205046 56 153 2.0 6.0 0.03 0.39 0.30 100 1003.3
20260506204947 56 151 2.0 8.0 0.03 0.39 0.30 100 1003.2
20260506204847 56 139 2.0 8.0 0.02 0.38 0.30 100 1003.3
20260506204747 56 143 2.0 8.0 0.02 0.38 0.29 100 1003.3
20260506204540 56 155 2.0 8.0 0.02 0.38 0.29 100 1003.4
20260506204440 56 180 2.0 8.0 0.02 0.38 0.29 100 1003.4
20260506204339 56 142 2.0 8.0 0.02 0.38 0.29 100 1003.4
20260506204240 56 140 2.0 8.0 0.02 0.38 0.29 100 1003.4
20260506204037 56 144 1.0 8.0 0.02 0.38 0.29 100 1003.3
20260506203937 56 170 2.0 7.0 0.01 0.37 0.29 100 1003.4
20260506203836 56 155 2.0 7.0 0.01 0.37 0.28 100 1003.4
20260506203736 56 138 2.0 7.0 0.01 0.37 0.28 100 1003.4
20260506203528 56 144 2.0 7.0 0.02 0.37 0.28 100 1003.4
20260506203428 56 140 2.0 7.0 0.02 0.37 0.28 100 1003.4
20260506203324 56 143 2.0 7.0 0.02 0.37 0.28 100 1003.4
20260506203226 56 138 2.0 7.0 0.02 0.37 0.28 100 1003.4
20260506203020 56 137 2.0 8.0 0.02 0.37 0.28 100 1003.5
20260506202918 56 129 2.0 8.0 0.02 0.37 0.28 100 1003.5
20260506202818 56 154 2.0 8.0 0.02 0.37 0.28 100 1003.5
20260506202742 56 187 2.0 8.0 0.02 0.37 0.28 100 1003.5
20260506202721 56 189 2.0 8.0 0.02 0.37 0.28 100 1003.5
20260506202515 56 144 2.0 8.0 0.02 0.37 0.28 100 1003.5
20260506202412 56 169 2.0 8.0 0.02 0.37 0.28 100 1003.5
20260506202310 56 138 2.0 8.0 0.02 0.37 0.28 100 1003.5
20260506202212 56 132 2.0 8.0 0.02 0.37 0.28 100 1003.5
20260506202000 56 184 3.0 9.0 0.02 0.37 0.28 100 1003.6
20260506201857 56 136 2.0 9.0 0.02 0.37 0.28 100 1003.6
20260506201756 56 123 2.0 9.0 0.03 0.37 0.28 100 1003.6
20260506201658 56 163 2.0 9.0 0.03 0.37 0.28 100 1003.6
20260506201451 56 155 2.0 9.0 0.02 0.36 0.27 100 1003.6
20260506201352 56 165 2.0 9.0 0.02 0.36 0.27 100 1003.7
20260506201252 56 183 2.0 9.0 0.02 0.36 0.27 100 1003.7
20260506201153 56 140 2.0 9.0 0.02 0.36 0.27 100 1003.7
20260506200947 56 135 2.0 9.0 0.02 0.36 0.27 100 1003.6
20260506200847 56 171 2.0 9.0 0.02 0.36 0.27 100 1003.7
20260506200748 56 154 2.0 9.0 0.02 0.36 0.27 100 1003.7
20260506200647 56 157 2.0 9.0 0.02 0.36 0.27 100 1003.7
20260506200435 56 161 2.0 9.0 0.03 0.36 0.27 100 1003.7
20260506200335 56 157 2.0 9.0 0.03 0.36 0.27 100 1003.7
20260506200236 56 126 2.0 8.0 0.03 0.36 0.27 100 1003.7
20260506200136 56 171 2.0 8.0 0.03 0.36 0.27 100 1003.7
20260506195930 56 146 2.0 8.0 0.03 0.36 0.27 100 1003.7
20260506195829 56 138 2.0 8.0 0.03 0.36 0.27 100 1003.7
20260506195728 57 168 2.0 8.0 0.03 0.36 0.27 100 1003.7
20260506195630 56 130 2.0 8.0 0.03 0.36 0.27 100 1003.7
20260506195424 57 165 2.0 7.0 0.04 0.36 0.27 100 1003.8
20260506195323 57 131 2.0 7.0 0.04 0.36 0.27 100 1003.8
20260506195224 57 131 2.0 6.0 0.04 0.36 0.27 100 1003.8
20260506195123 57 129 2.0 7.0 0.04 0.36 0.27 100 1003.8
20260506194911 56 143 2.0 7.0 0.04 0.36 0.27 100 1003.8
20260506194811 56 155 1.0 7.0 0.05 0.36 0.27 100 1003.8
20260506194710 56 148 1.0 7.0 0.05 0.36 0.27 100 1003.9
20260506194609 56 123 1.0 7.0 0.05 0.36 0.27 100 1003.9
20260506194402 56 125 1.0 7.0 0.05 0.36 0.27 100 1003.9
20260506194303 56 167 1.0 7.0 0.06 0.36 0.27 100 1004.0
20260506194204 56 186 1.0 7.0 0.06 0.36 0.27 100 1003.9
20260506194104 56 125 1.0 7.0 0.06 0.36 0.27 100 1003.9
20260506193900 56 155 1.0 7.0 0.06 0.36 0.27 100 1003.9
20260506193758 56 152 1.0 7.0 0.06 0.36 0.27 100 1003.9
20260506193658 56 148 1.0 7.0 0.06 0.36 0.27 100 1004.0
20260506193558 56 167 1.0 5.0 0.06 0.36 0.27 100 1004.0
20260506193350 56 161 1.0 7.0 0.06 0.35 0.26 100 1004.0
20260506193247 56 171 1.0 7.0 0.06 0.35 0.26 100 1004.0
20260506193148 56 177 1.0 7.0 0.06 0.35 0.26 100 1004.0
20260506193047 56 181 1.0 7.0 0.06 0.35 0.26 100 1004.0
20260506192847 56 149 1.0 7.0 0.06 0.35 0.26 100 1004.1
20260506192746 56 161 1.0 7.0 0.06 0.35 0.26 100 1004.0
20260506192642 56 144 1.0 7.0 0.06 0.35 0.26 100 1004.0
20260506192544 56 138 1.0 7.0 0.07 0.35 0.26 100 1004.1
20260506192337 56 139 2.0 11.0 0.07 0.35 0.26 100 1004.1
20260506192237 56 141 2.0 11.0 0.07 0.35 0.26 100 1004.1
20260506192137 56 186 2.0 11.0 0.07 0.35 0.26 100 1004.1
20260506192101 56 162 2.0 11.0 0.07 0.35 0.26 100 1004.1
20260506192039 56 163 2.0 11.0 0.08 0.35 0.26 100 1004.2
20260506191821 56 140 2.0 11.0 0.07 0.34 0.26 100 1004.2
20260506191721 56 158 2.0 11.0 0.07 0.34 0.25 100 1004.1
20260506191622 56 173 2.0 11.0 0.07 0.34 0.25 100 1004.1
20260506191520 56 155 2.0 11.0 0.07 0.34 0.25 100 1004.2
20260506191422 56 173 2.0 11.0 0.07 0.34 0.25 100 1004.2
20260506191317 56 142 2.0 8.0 0.08 0.34 0.25 100 1004.2
20260506191216 56 137 2.0 8.0 0.08 0.34 0.25 100 1004.2
20260506191117 56 130 2.0 8.0 0.08 0.34 0.25 100 1004.2
20260506191017 56 123 2.0 8.0 0.08 0.34 0.25 100 1004.2
20260506190915 56 140 2.0 8.0 0.08 0.34 0.25 100 1004.2
20260506190809 56 138 2.0 8.0 0.09 0.34 0.25 100 1004.2
20260506190709 56 101 3.0 8.0 0.09 0.34 0.25 100 1004.2
20260506190610 56 154 3.0 8.0 0.09 0.34 0.25 100 1004.2
20260506190509 56 136 2.0 7.0 0.08 0.33 0.24 100 1004.2
20260506190410 56 126 2.0 7.0 0.08 0.33 0.24 100 1004.2
20260506190300 56 129 2.0 7.0 0.09 0.33 0.24 100 1004.2
20260506190202 56 189 2.0 7.0 0.09 0.33 0.24 100 1004.2
20260506190105 56 131 2.0 7.0 0.09 0.33 0.24 100 1004.2
20260506190042 56 161 2.0 7.0 0.10 0.33 0.24 100 1004.2
20260506185900 56 138 2.0 7.0 0.10 0.33 0.24 100 1004.2
20260506185752 56 150 2.0 7.0 0.10 0.33 0.24 100 1004.2
20260506185654 56 142 2.0 9.0 0.10 0.33 0.24 100 1004.2
20260506185554 56 132 2.0 9.0 0.10 0.33 0.24 100 1004.3
20260506185453 56 163 3.0 9.0 0.10 0.32 0.23 100 1004.2
20260506185354 56 125 3.0 9.0 0.10 0.32 0.23 100 1004.2
20260506185250 56 113 3.0 10.0 0.10 0.32 0.23 100 1004.4
20260506185147 56 177 3.0 10.0 0.10 0.32 0.23 100 1004.3
20260506185048 56 142 3.0 10.0 0.10 0.32 0.23 100 1004.4
20260506184946 56 150 3.0 10.0 0.10 0.32 0.23 100 1004.4
20260506184848 56 148 3.0 10.0 0.09 0.31 0.22 100 1004.3
20260506184734 56 140 3.0 10.0 0.10 0.31 0.22 100 1004.4
20260506184632 56 180 3.0 10.0 0.10 0.31 0.22 100 1004.2
20260506184534 56 163 4.0 10.0 0.10 0.31 0.22 100 1004.3
20260506184230 56 151 3.0 10.0 0.10 0.30 0.21 100 1004.2
20260506184126 56 140 3.0 10.0 0.10 0.30 0.21 100 1004.2
20260506184027 56 135 3.0 8.0 0.10 0.30 0.21 100 1004.2
20260506183928 56 153 3.0 8.0 0.10 0.30 0.21 100 1004.3
20260506183828 56 130 3.0 8.0 0.10 0.30 0.21 100 1004.3
20260506183721 56 150 3.0 8.0 0.11 0.30 0.21 100 1004.2
20260506183622 56 174 3.0 8.0 0.11 0.30 0.21 100 1004.3
20260506183522 56 205 2.0 8.0 0.11 0.30 0.21 100 1004.2
20260506183420 56 147 2.0 8.0 0.10 0.29 0.20 100 1004.3
20260506183321 56 161 2.0 8.0 0.10 0.29 0.20 100 1004.4
20260506183212 56 165 2.0 8.0 0.10 0.29 0.20 100 1004.3
20260506183110 56 172 2.0 8.0 0.10 0.29 0.20 100 1004.5
20260506183012 56 152 1.0 6.0 0.11 0.29 0.20 100 1004.5
20260506182912 56 139 1.0 6.0 0.11 0.29 0.20 100 1004.5
20260506182826 56 154 1.0 6.0 0.11 0.29 0.20 100 1004.5
20260506182803 56 142 1.0 6.0 0.11 0.29 0.20 100 1004.5
20260506182606 56 131 1.0 6.0 0.11 0.29 0.20 100 1004.5
20260506182542 56 135 1.0 6.0 0.10 0.28 0.19 100 1004.5
20260506182405 56 157 1.0 8.0 0.11 0.28 0.19 100 1004.5
20260506182307 56 165 1.0 8.0 0.11 0.28 0.19 100 1004.5
20260506182201 56 164 1.0 8.0 0.11 0.28 0.19 100 1004.6
20260506182102 56 138 1.0 8.0 0.11 0.28 0.19 100 1004.5
20260506182000 56 177 1.0 8.0 0.10 0.27 0.19 100 1004.6
20260506181901 56 133 1.0 8.0 0.10 0.27 0.18 100 1004.6
20260506181800 56 133 1.0 8.0 0.10 0.27 0.18 100 1004.6
20260506181645 56 145 2.0 8.0 0.10 0.27 0.18 100 1004.7
20260506181555 56 157 1.0 8.0 0.10 0.27 0.18 100 1004.7
20260506181534 56 186 1.0 8.0 0.11 0.27 0.18 100 1004.7
20260506181345 56 138 1.0 6.0 0.10 0.26 0.17 100 1004.7
20260506181246 56 140 1.0 5.0 0.10 0.26 0.17 100 1004.8
20260506181140 56 154 1.0 5.0 0.10 0.26 0.17 100 1004.8
20260506181040 56 135 1.0 7.0 0.10 0.26 0.17 100 1004.8
20260506180938 56 133 1.0 7.0 0.11 0.26 0.17 100 1004.8
20260506180840 56 159 1.0 7.0 0.10 0.25 0.17 100 1004.8
20260506180739 56 167 1.0 7.0 0.10 0.25 0.16 100 1004.9
20260506180640 56 185 1.0 7.0 0.10 0.25 0.16 100 1004.9
20260506180538 56 172 1.0 7.0 0.10 0.25 0.16 100 1004.9
20260506180435 56 167 1.0 7.0 0.10 0.25 0.16 100 1004.9
20260506180336 56 161 1.0 7.0 0.09 0.24 0.16 100 1004.9
20260506180234 56 138 1.0 7.0 0.10 0.24 0.15 99 1004.8
20260506180122 56 143 1.0 7.0 0.10 0.24 0.15 99 1004.9
20260506180022 56 143 1.0 7.0 0.09 0.23 0.15 99 1005.0
20260506175924 56 143 1.0 7.0 0.09 0.23 0.14 99 1005.0
20260506175824 56 133 1.0 7.0 0.09 0.23 0.14 99 1005.0
20260506175723 56 131 1.0 7.0 0.09 0.23 0.14 99 1005.0
20260506175617 56 131 1.0 7.0 0.09 0.23 0.14 99 1005.1
20260506175518 56 134 1.0 7.0 0.09 0.23 0.14 99 1005.0
20260506175317 56 167 1.0 6.0 0.08 0.22 0.13 99 1005.1
20260506175217 56 137 1.0 5.0 0.09 0.22 0.13 99 1005.0
20260506175112 56 177 1.0 5.0 0.09 0.22 0.13 99 1005.0
20260506175012 56 178 1.0 5.0 0.09 0.22 0.13 99 1005.0
20260506174910 56 178 1.0 5.0 0.09 0.22 0.13 99 1005.0
20260506174810 56 178 1.0 5.0 0.08 0.21 0.13 99 1005.0
20260506174711 56 163 1.0 5.0 0.08 0.21 0.12 99 1005.1
20260506174603 56 163 0.0 5.0 0.08 0.21 0.12 99 1005.1
20260506174504 56 177 0.0 4.0 0.08 0.21 0.12 99 1005.0
20260506174403 56 177 0.0 4.0 0.08 0.21 0.12 99 1005.0
20260506174303 56 178 0.0 4.0 0.07 0.20 0.12 99 1005.3
20260506174205 56 178 0.0 4.0 0.08 0.20 0.11 99 1005.1
20260506174100 56 178 0.0 4.0 0.08 0.20 0.11 99 1005.1
20260506174001 56 178 0.0 4.0 0.08 0.20 0.11 99 1005.1
20260506173900 56 178 0.0 4.0 0.08 0.20 0.11 99 1005.1
20260506173802 56 178 0.0 0.0 0.08 0.20 0.11 99 1005.1
20260506173700 56 178 0.0 0.0 0.07 0.19 0.11 99 1005.1
20260506173601 56 178 0.0 0.0 0.07 0.19 0.10 99 1005.3
20260506173500 56 178 0.0 0.0 0.07 0.19 0.10 99 1005.1
20260506173402 56 178 0.0 0.0 0.07 0.19 0.10 99 1005.1
20260506173301 56 178 0.0 0.0 0.07 0.19 0.10 99 1005.1
20260506173201 56 178 0.0 0.0 0.07 0.19 0.10 99 1005.1
20260506173100 56 178 0.0 0.0 0.06 0.18 0.10 99 1005.1
20260506173000 56 178 0.0 0.0 0.06 0.18 0.09 99 1005.1
20260506172858 56 178 0.0 0.0 0.06 0.18 0.09 99 1005.3
20260506172758 56 178 0.0 0.0 0.06 0.18 0.09 99 1005.3
20260506172656 56 178 0.0 0.0 0.06 0.18 0.09 99 1005.3
20260506172554 56 178 0.0 0.0 0.06 0.18 0.09 98 1005.3
20260506172454 56 178 0.0 0.0 0.05 0.17 0.09 99 1005.4
20260506172352 56 178 0.0 0.0 0.06 0.17 0.08 98 1005.4
20260506172252 56 178 0.0 0.0 0.06 0.17 0.08 98 1005.5
20260506172151 56 178 0.0 0.0 0.06 0.17 0.08 98 1005.5
20260506172050 56 178 0.0 0.0 0.06 0.17 0.08 98 1005.5
20260506172021 56 178 0.0 0.0 0.06 0.17 0.08 98 1005.5
20260506171842 56 178 0.0 0.0 0.06 0.17 0.08 98 1005.5
20260506171741 56 178 0.0 0.0 0.06 0.17 0.08 98 1005.5
20260506171640 56 178 0.0 0.0 0.06 0.17 0.08 98 1005.5
20260506171538 56 178 0.0 0.0 0.06 0.17 0.08 98 1005.5
20260506171437 56 178 0.0 0.0 0.05 0.16 0.08 98 1005.6
20260506171336 56 178 0.0 0.0 0.05 0.16 0.07 98 1005.5
20260506171235 56 178 0.0 0.0 0.05 0.16 0.07 98 1005.5
20260506171134 56 178 0.0 0.0 0.05 0.16 0.07 98 1005.6
20260506171032 56 178 0.0 0.0 0.05 0.16 0.07 98 1005.6
20260506170934 56 178 0.0 0.0 0.04 0.15 0.07 98 1005.6
20260506170833 56 178 0.0 0.0 0.04 0.15 0.06 98 1005.6
20260506170733 56 178 0.0 0.0 0.04 0.15 0.06 98 1005.6
20260506170633 56 178 0.0 0.0 0.04 0.15 0.06 98 1005.6
20260506170531 56 178 0.0 0.0 0.04 0.15 0.06 98 1005.6
20260506170430 56 178 0.0 0.0 0.04 0.15 0.06 98 1005.6
20260506170330 56 178 0.0 0.0 0.04 0.15 0.06 98 1005.6
20260506170232 56 178 0.0 0.0 0.04 0.14 0.06 98 1005.6
20260506170131 56 178 0.0 0.0 0.04 0.14 0.05 98 1005.6
20260506170030 56 178 0.0 0.0 0.04 0.14 0.05 98 1005.6
20260506165928 56 178 0.0 0.0 0.04 0.14 0.05 98 1005.6
20260506165830 56 178 0.0 0.0 0.04 0.14 0.05 98 1005.7
20260506165730 56 178 0.0 0.0 0.04 0.14 0.05 98 1005.6
20260506165629 56 178 0.0 0.0 0.04 0.14 0.05 98 1005.6
20260506165540 56 178 0.0 0.0 0.04 0.14 0.05 98 1005.5
20260506165519 56 178 0.0 0.0 0.04 0.14 0.05 97 1005.5
20260506165326 56 178 0.0 0.0 0.04 0.14 0.05 98 1005.5
20260506165223 56 178 0.0 0.0 0.03 0.13 0.05 98 1005.5
20260506165120 56 178 0.0 0.0 0.03 0.13 0.05 98 1005.6
20260506165038 56 178 0.0 0.0 0.03 0.13 0.04 98 1005.6
20260506165018 56 178 0.0 0.0 0.03 0.13 0.04 98 1005.6
20260506164820 56 178 0.0 0.0 0.03 0.13 0.04 97 1005.6
20260506164717 56 178 0.0 0.0 0.03 0.13 0.04 97 1005.6
20260506164610 56 178 0.0 0.0 0.03 0.13 0.04 97 1005.6
20260506164511 56 178 0.0 0.0 0.03 0.13 0.04 97 1005.6
20260506164308 56 178 0.0 0.0 0.03 0.13 0.04 97 1005.7
20260506164210 56 178 0.0 0.0 0.02 0.12 0.03 98 1005.7
20260506164110 56 178 0.0 0.0 0.02 0.12 0.03 97 1005.7
20260506164033 56 178 0.0 0.0 0.02 0.12 0.03 97 1005.7
20260506164013 56 178 0.0 0.0 0.02 0.12 0.03 97 1005.7
20260506163809 56 178 0.0 0.0 0.02 0.12 0.03 97 1005.7
20260506163710 56 178 0.0 0.0 0.02 0.12 0.03 97 1005.7
20260506163609 56 178 0.0 0.0 0.02 0.12 0.03 97 1005.7
20260506163507 56 178 0.0 0.0 0.03 0.12 0.03 97 1005.7
20260506163406 56 178 0.0 0.0 0.03 0.12 0.03 98 1005.7
20260506163305 56 178 0.0 0.0 0.03 0.12 0.03 97 1005.7
20260506163205 56 178 0.0 0.0 0.03 0.12 0.03 97 1005.8
20260506163105 56 178 0.0 0.0 0.03 0.12 0.03 97 1005.8
20260506163029 56 178 0.0 0.0 0.03 0.12 0.03 97 1005.8
20260506162905 56 178 0.0 0.0 0.03 0.12 0.03 97 1005.8
20260506162802 56 178 0.0 0.0 0.03 0.12 0.03 97 1005.8
20260506162704 56 178 0.0 0.0 0.03 0.12 0.03 97 1005.8
20260506162601 56 178 0.0 0.0 0.03 0.12 0.03 97 1005.8
20260506162459 56 178 0.0 0.0 0.03 0.12 0.03 97 1005.8
20260506162359 56 178 0.0 0.0 0.02 0.11 0.03 97 1005.8
20260506162256 56 178 0.0 0.0 0.02 0.11 0.02 97 1005.8
20260506162158 56 178 0.0 0.0 0.02 0.11 0.02 96 1005.8
20260506162055 56 178 0.0 0.0 0.02 0.11 0.02 96 1005.8
20260506162018 56 178 0.0 0.0 0.02 0.11 0.02 97 1005.8
20260506161850 56 178 0.0 0.0 0.02 0.11 0.02 97 1005.9
20260506161747 56 178 0.0 0.0 0.02 0.11 0.02 96 1005.9
20260506161650 56 178 0.0 0.0 0.02 0.11 0.02 96 1005.9
20260506161549 56 178 0.0 0.0 0.02 0.11 0.02 97 1006.0
20260506161448 56 178 0.0 0.0 0.02 0.11 0.02 97 1006.0
20260506161347 56 178 0.0 0.0 0.02 0.11 0.02 97 1006.1
20260506161244 56 178 0.0 0.0 0.02 0.11 0.02 97 1006.1
20260506161144 56 178 0.0 0.0 0.02 0.11 0.02 97 1006.1
20260506161043 56 178 0.0 0.0 0.02 0.11 0.02 96 1006.1
20260506160942 56 178 0.0 0.0 0.02 0.11 0.02 96 1006.1
20260506160843 56 178 0.0 0.0 0.02 0.11 0.02 96 1006.2
20260506160744 56 178 0.0 0.0 0.02 0.11 0.02 96 1006.2
20260506160640 56 178 0.0 0.0 0.02 0.11 0.02 96 1006.3
20260506160540 56 178 0.0 0.0 0.02 0.11 0.02 96 1006.3
20260506160442 56 178 0.0 0.0 0.02 0.11 0.02 96 1006.2
20260506160339 56 178 0.0 0.0 0.02 0.11 0.02 96 1006.3
20260506160237 56 178 0.0 0.0 0.01 0.10 0.01 96 1006.4
20260506160136 56 178 0.0 0.0 0.01 0.10 0.01 96 1006.4
20260506160036 56 178 0.0 0.0 0.01 0.10 0.01 95 1006.4
20260506155935 56 178 0.0 0.0 0.01 0.10 0.01 95 1006.4
20260506155832 56 178 0.0 0.0 0.01 0.10 0.01 95 1006.5
20260506155734 56 178 0.0 0.0 0.01 0.10 0.01 95 1006.6
20260506155628 56 178 0.0 0.0 0.01 0.10 0.01 95 1006.6
20260506155530 56 178 0.0 0.0 0.01 0.10 0.01 95 1006.6
20260506155428 56 178 0.0 0.0 0.01 0.10 0.01 95 1006.6
20260506155328 56 178 0.0 0.0 0.01 0.10 0.01 95 1006.6
20260506155230 56 178 0.0 1.0 0.01 0.10 0.01 95 1006.6
20260506155129 56 178 0.0 1.0 0.01 0.10 0.01 95 1006.6
20260506155025 56 178 0.0 1.0 0.01 0.10 0.01 95 1006.7
20260506154926 57 178 0.0 1.0 0.01 0.10 0.01 94 1006.7
20260506154827 57 178 0.0 1.0 0.01 0.10 0.01 94 1006.7
20260506154727 57 178 0.0 2.0 0.01 0.10 0.01 95 1006.8
20260506154627 57 178 0.0 2.0 0.01 0.10 0.01 95 1006.8
20260506154527 57 178 0.0 2.0 0.01 0.10 0.01 94 1006.9
20260506154504 57 178 0.0 2.0 0.01 0.10 0.01 94 1006.9
20260506154318 57 178 0.0 2.0 0.01 0.10 0.01 94 1006.9
20260506154218 57 178 0.0 2.0 0.01 0.10 0.01 94 1006.9
20260506154119 57 178 0.0 2.0 0.01 0.10 0.01 94 1007.0
20260506154018 57 178 0.0 2.0 0.01 0.10 0.01 94 1006.9
20260506153911 57 178 0.0 2.0 0.01 0.10 0.01 94 1007.0
20260506153810 57 178 0.0 2.0 0.01 0.10 0.01 94 1007.0
20260506153710 57 178 0.0 0.0 0.01 0.10 0.01 94 1007.0
20260506153609 57 178 0.0 0.0 0.01 0.10 0.01 94 1007.0
20260506153510 57 178 0.0 0.0 0.00 0.09 0.01 93 1007.0
20260506153411 57 178 0.0 0.0 0.00 0.09 0.00 93 1006.9
20260506153312 57 178 0.0 0.0 0.00 0.09 0.00 93 1006.9
20260506153208 57 178 0.0 0.0 0.00 0.09 0.00 93 1006.9
20260506153106 57 178 0.0 0.0 0.00 0.09 0.00 93 1006.9
20260506153006 57 178 0.0 0.0 0.00 0.09 0.00 92 1006.9
20260506152906 57 178 0.0 1.0 0.00 0.09 0.00 92 1006.9
20260506152806 57 178 0.0 1.0 0.00 0.09 0.00 92 1006.9
20260506152706 57 178 0.0 1.0 0.00 0.09 0.00 92 1006.9
20260506152608 57 178 0.0 1.0 0.00 0.09 0.00 92 1006.9
20260506152502 57 178 0.0 1.0 0.00 0.09 0.00 92 1006.9
20260506152402 57 178 0.0 1.0 0.00 0.09 0.00 92 1007.0
20260506152305 57 178 0.0 1.0 0.00 0.09 0.00 92 1007.0
20260506152202 57 178 0.0 1.0 0.00 0.09 0.00 92 1007.0
20260506152104 57 178 0.0 1.0 0.00 0.09 0.00 91 1006.9
20260506152003 57 178 0.0 1.0 0.00 0.09 0.00 91 1006.9
20260506151902 57 178 0.0 1.0 0.00 0.09 0.00 92 1006.9
20260506151804 57 178 0.0 1.0 0.00 0.09 0.00 91 1006.9
20260506151703 57 178 0.0 1.0 0.00 0.09 0.00 91 1006.8
20260506151602 57 178 0.0 1.0 0.00 0.09 0.00 91 1006.8
20260506151502 57 178 0.0 1.0 0.00 0.09 0.00 91 1006.8
20260506151404 57 178 0.0 1.0 0.00 0.09 0.00 91 1006.8
20260506151302 57 178 0.0 1.0 0.00 0.09 0.00 90 1006.8
20260506151202 57 178 0.0 1.0 0.00 0.09 0.00 91 1006.8
20260506151103 57 178 0.0 0.0 0.00 0.09 0.00 91 1006.7
20260506151003 57 178 0.0 0.0 0.00 0.09 0.00 91 1006.8
20260506150902 57 178 0.0 0.0 0.00 0.09 0.00 90 1006.7
20260506150803 57 178 0.0 0.0 0.00 0.09 0.00 90 1006.7
20260506150702 57 178 0.0 0.0 0.00 0.09 0.00 90 1006.7
20260506150602 57 178 0.0 0.0 0.00 0.09 0.00 90 1006.8
20260506150503 57 178 0.0 0.0 0.00 0.09 0.00 90 1006.7
20260506150402 57 178 0.0 0.0 0.00 0.09 0.00 90 1006.8
20260506150304 57 178 0.0 0.0 0.00 0.09 0.00 90 1006.7
20260506150204 57 178 0.0 0.0 0.00 0.09 0.00 90 1006.8
20260506150004 57 178 0.0 0.0 0.00 0.09 0.00 90 1006.9
20260506145752 57 178 0.0 0.0 0.00 0.09 0.00 91 1006.9
20260506145652 57 178 0.0 0.0 0.00 0.09 0.00 90 1006.9
20260506145550 57 178 0.0 0.0 0.00 0.09 0.00 90 1006.9
20260506145451 57 178 0.0 0.0 0.00 0.09 0.00 90 1006.9
20260506145252 57 178 0.0 0.0 0.00 0.09 0.00 90 1006.9
20260506145150 57 178 0.0 3.0 0.00 0.09 0.00 90 1006.9
20260506145051 57 178 0.0 3.0 0.00 0.09 0.00 90 1006.9
20260506144950 57 178 0.0 3.0 0.00 0.09 0.00 90 1006.9
20260506144749 57 178 0.0 3.0 0.00 0.09 0.00 90 1007.0
20260506144650 57 178 0.0 3.0 0.00 0.09 0.00 90 1007.0
20260506144551 57 178 0.0 3.0 0.00 0.09 0.00 90 1007.0
20260506144450 57 178 0.0 3.0 0.00 0.09 0.00 90 1006.9
20260506144251 57 178 0.0 3.0 0.00 0.09 0.00 89 1007.0
20260506144151 57 169 0.0 1.0 0.00 0.09 0.00 89 1007.0
20260506144051 57 203 0.0 0.0 0.00 0.09 0.00 89 1007.0
20260506143950 57 203 0.0 0.0 0.00 0.09 0.00 89 1007.0
20260506143750 57 200 0.0 0.0 0.00 0.09 0.00 89 1007.0
20260506143652 57 175 0.0 0.0 0.00 0.09 0.00 89 1006.9
20260506143551 57 175 0.0 0.0 0.00 0.09 0.00 89 1006.9
20260506143450 57 175 0.0 0.0 0.00 0.09 0.00 90 1006.9
20260506143252 57 175 0.0 1.0 0.00 0.09 0.00 89 1006.9
20260506143148 57 175 0.0 4.0 0.00 0.09 0.00 89 1007.0
20260506143050 57 175 0.0 4.0 0.00 0.09 0.00 89 1007.0
20260506143012 57 175 0.0 4.0 0.00 0.09 0.00 89 1007.0
20260506142950 57 180 0.0 4.0 0.00 0.09 0.00 90 1007.0
20260506142733 57 180 0.0 4.0 0.00 0.09 0.00 90 1007.0
20260506142630 57 180 0.0 4.0 0.00 0.09 0.00 89 1007.0
20260506142531 57 180 0.0 4.0 0.00 0.09 0.00 90 1006.9
20260506142430 57 177 1.0 4.0 0.00 0.09 0.00 89 1006.9
20260506142227 57 180 1.0 4.0 0.00 0.09 0.00 90 1006.9
20260506142128 57 146 1.0 3.0 0.00 0.09 0.00 90 1006.9
20260506142029 57 146 1.0 3.0 0.00 0.09 0.00 90 1006.9
20260506141927 57 146 1.0 3.0 0.00 0.09 0.00 90 1006.9
20260506141719 57 146 1.0 3.0 0.00 0.09 0.00 89 1006.9
20260506141618 57 147 1.0 3.0 0.00 0.09 0.00 89 1006.9
20260506141518 57 134 0.0 3.0 0.00 0.09 0.00 90 1006.9
20260506141420 57 128 0.0 3.0 0.00 0.09 0.00 90 1006.8
20260506141217 57 113 0.0 3.0 0.00 0.09 0.00 90 1006.9
20260506141109 57 62 0.0 2.0 0.00 0.09 0.00 90 1006.8
20260506141009 57 65 0.0 4.0 0.00 0.09 0.00 90 1006.9
20260506140910 57 156 0.0 4.0 0.00 0.09 0.00 90 1006.9
20260506140705 57 153 0.0 4.0 0.00 0.09 0.00 91 1006.9
20260506140602 57 153 0.0 4.0 0.00 0.09 0.00 90 1006.9
20260506140503 57 153 0.0 4.0 0.00 0.09 0.00 90 1006.9
20260506140402 57 153 0.0 4.0 0.00 0.09 0.00 90 1006.8
20260506140159 57 153 1.0 4.0 0.00 0.09 0.00 89 1006.8
20260506140057 57 153 0.0 4.0 0.00 0.09 0.00 89 1006.8
20260506135957 57 176 0.0 3.0 0.00 0.09 0.00 89 1006.8
20260506135856 57 257 0.0 3.0 0.00 0.09 0.00 90 1006.8
20260506135645 57 182 0.0 3.0 0.00 0.09 0.00 90 1006.8
20260506135547 57 175 0.0 3.0 0.00 0.09 0.00 91 1006.8
20260506135446 57 179 0.0 3.0 0.00 0.09 0.00 91 1006.8
20260506135344 57 179 0.0 4.0 0.00 0.09 0.00 91 1006.8
20260506135141 57 185 0.0 4.0 0.00 0.09 0.00 91 1006.8
20260506135040 57 188 0.0 4.0 0.00 0.09 0.00 91 1006.9
20260506134940 57 199 0.0 4.0 0.00 0.09 0.00 91 1006.9
20260506134839 57 199 0.0 4.0 0.00 0.09 0.00 91 1006.8
20260506134632 57 140 0.0 4.0 0.00 0.09 0.00 91 1006.9
20260506134532 57 140 0.0 4.0 0.00 0.09 0.00 91 1006.9
20260506134431 57 141 0.0 4.0 0.00 0.09 0.00 91 1006.9
20260506134330 57 151 0.0 3.0 0.00 0.09 0.00 91 1007.0
20260506134119 56 151 0.0 3.0 0.00 0.09 0.00 92 1007.0
20260506134021 56 151 1.0 5.0 0.00 0.09 0.00 91 1007.0
20260506133921 56 151 1.0 5.0 0.00 0.09 0.00 91 1007.0
20260506133819 56 151 1.0 5.0 0.00 0.09 0.00 91 1007.1
20260506133620 56 151 0.0 5.0 0.00 0.09 0.00 92 1007.1
20260506133518 56 151 0.0 5.0 0.00 0.09 0.00 92 1007.1
20260506133417 56 151 0.0 5.0 0.00 0.09 0.00 92 1007.1
20260506133316 56 151 0.0 5.0 0.00 0.09 0.00 92 1007.1
20260506133110 56 151 0.0 4.0 0.00 0.09 0.00 92 1007.1
20260506133007 56 151 0.0 2.0 0.00 0.09 0.00 92 1007.1
20260506132909 56 151 0.0 2.0 0.00 0.09 0.00 92 1007.2
20260506132832 56 151 0.0 2.0 0.00 0.09 0.00 92 1007.3
20260506132813 56 151 0.0 2.0 0.00 0.09 0.00 92 1007.3
20260506132558 56 151 0.0 2.0 0.00 0.09 0.00 91 1007.3
20260506132459 56 151 0.0 2.0 0.00 0.09 0.00 91 1007.2
20260506132358 56 151 0.0 2.0 0.00 0.09 0.00 92 1007.3
20260506132257 56 151 0.0 2.0 0.00 0.09 0.00 92 1007.3
20260506132055 56 151 0.0 2.0 0.00 0.09 0.00 91 1007.2
20260506131953 56 151 0.0 2.0 0.00 0.09 0.00 91 1007.3
20260506131853 56 151 0.0 2.0 0.00 0.09 0.00 91 1007.3
20260506131749 56 151 0.0 2.0 0.00 0.09 0.00 91 1007.2
20260506131549 56 151 0.0 1.0 0.00 0.09 0.00 92 1007.1
20260506131448 56 151 0.0 2.0 0.00 0.09 0.00 92 1007.1
20260506131344 56 151 0.0 2.0 0.00 0.09 0.00 92 1007.1
20260506131309 56 151 0.0 3.0 0.00 0.09 0.00 92 1007.2
20260506131247 56 151 0.0 3.0 0.00 0.09 0.00 91 1007.3
20260506131036 56 151 0.0 3.0 0.00 0.09 0.00 91 1007.3
20260506130935 56 151 0.0 3.0 0.00 0.09 0.00 92 1007.3
20260506130837 56 151 0.0 3.0 0.00 0.09 0.00 92 1007.3
20260506130735 56 151 0.0 3.0 0.00 0.09 0.00 92 1007.1
20260506130531 56 151 0.0 3.0 0.00 0.09 0.00 92 1007.2
20260506130431 56 151 0.0 3.0 0.00 0.09 0.00 92 1007.3
20260506130328 56 151 0.0 4.0 0.00 0.09 0.00 92 1007.3
20260506130025 56 145 0.0 4.0 0.00 0.09 0.00 91 1007.1
20260506125958 56 145 0.0 4.0 0.00 0.09 0.00 92 1007.2
20260506125822 55 145 0.0 4.0 0.00 0.09 0.00 92 1007.2
20260506125745 55 145 0.0 4.0 0.00 0.09 0.00 92 1007.2
20260506125724 55 145 1.0 4.0 0.00 0.09 0.00 92 1007.3
20260506125506 55 143 1.0 4.0 0.00 0.09 0.00 92 1007.3
20260506125405 55 143 1.0 4.0 0.00 0.09 0.00 92 1007.3
20260506125306 55 143 1.0 4.0 0.00 0.09 0.00 92 1007.3
20260506125206 55 143 1.0 4.0 0.00 0.09 0.00 91 1007.2
20260506125008 55 146 1.0 4.0 0.00 0.09 0.00 91 1007.2
20260506124905 55 146 0.0 4.0 0.00 0.09 0.00 91 1007.2
20260506124803 55 147 0.0 4.0 0.00 0.09 0.00 91 1007.2
20260506124701 55 146 0.0 4.0 0.00 0.09 0.00 91 1007.1
20260506124459 55 155 0.0 3.0 0.00 0.09 0.00 91 1007.2
20260506124358 55 155 0.0 5.0 0.00 0.09 0.00 91 1007.2
20260506124257 55 154 1.0 5.0 0.00 0.09 0.00 91 1007.2
20260506124157 55 154 1.0 5.0 0.00 0.09 0.00 91 1007.2
20260506123945 55 154 1.0 5.0 0.00 0.09 0.00 91 1007.2
20260506123847 55 154 1.0 5.0 0.00 0.09 0.00 91 1007.2
20260506123746 55 154 1.0 5.0 0.00 0.09 0.00 91 1007.1
20260506123647 55 154 1.0 5.0 0.00 0.09 0.00 91 1007.1
20260506123440 55 154 1.0 7.0 0.00 0.09 0.00 91 1007.1
20260506123337 55 148 1.0 7.0 0.00 0.09 0.00 91 1007.1
20260506123239 55 173 1.0 7.0 0.00 0.09 0.00 91 1007.1
20260506123138 55 162 1.0 7.0 0.00 0.09 0.00 91 1007.1
20260506122933 55 162 1.0 7.0 0.00 0.09 0.00 91 1007.0
20260506122831 55 162 1.0 7.0 0.00 0.09 0.00 91 1007.0
20260506122733 55 162 1.0 7.0 0.00 0.09 0.00 91 1007.0
20260506122657 55 162 1.0 7.0 0.00 0.09 0.00 91 1007.0
20260506122636 55 157 1.0 4.0 0.00 0.09 0.00 91 1007.0
20260506122421 55 157 1.0 5.0 0.00 0.09 0.00 91 1006.9
20260506122318 55 157 1.0 5.0 0.00 0.09 0.00 90 1007.0
20260506122219 55 159 1.0 5.0 0.00 0.09 0.00 91 1007.1
20260506122143 55 145 1.0 5.0 0.00 0.09 0.00 90 1007.2
20260506122123 55 157 1.0 5.0 0.00 0.09 0.00 91 1007.3
20260506121911 55 142 1.0 5.0 0.00 0.09 0.00 91 1007.3
20260506121811 55 153 1.0 5.0 0.00 0.09 0.00 90 1007.2
20260506121712 55 157 1.0 5.0 0.00 0.09 0.00 90 1007.2
20260506121613 55 136 1.0 5.0 0.00 0.09 0.00 91 1007.3
20260506121410 55 136 0.0 5.0 0.00 0.09 0.00 91 1007.3
20260506121305 56 139 0.0 5.0 0.00 0.09 0.00 91 1007.3
20260506121207 56 148 0.0 5.0 0.00 0.09 0.00 91 1007.3
20260506121106 56 148 0.0 5.0 0.00 0.09 0.00 91 1007.3
20260506120859 56 147 0.0 5.0 0.00 0.09 0.00 91 1007.3
20260506120756 56 147 1.0 5.0 0.00 0.09 0.00 91 1007.4
20260506120655 56 147 1.0 5.0 0.00 0.09 0.00 91 1007.4
20260506120557 56 149 1.0 5.0 0.00 0.09 0.00 91 1007.4
20260506120352 56 155 1.0 4.0 0.00 0.09 0.00 91 1007.4
20260506120251 56 155 1.0 4.0 0.00 0.09 0.00 91 1007.5
20260506120150 56 155 1.0 4.0 0.00 0.09 0.00 91 1007.4
20260506120050 56 155 1.0 4.0 0.00 0.09 0.00 91 1007.4
20260506115848 56 150 0.0 4.0 0.00 0.09 0.00 91 1007.4
20260506115748 56 159 0.0 4.0 0.00 0.09 0.00 92 1007.4
20260506115648 56 137 0.0 3.0 0.00 0.09 0.00 92 1007.4
20260506115547 56 142 0.0 3.0 0.00 0.09 0.00 92 1007.4
20260506115334 55 142 0.0 5.0 0.00 0.09 0.00 92 1007.4
20260506115234 55 142 0.0 5.0 0.00 0.09 0.00 93 1007.4
20260506115133 55 139 0.0 5.0 0.00 0.09 0.00 92 1007.4
20260506115031 55 139 1.0 5.0 0.00 0.09 0.00 92 1007.4
20260506114826 55 139 1.0 5.0 0.00 0.09 0.00 92 1007.4
20260506114723 55 139 1.0 5.0 0.00 0.09 0.00 92 1007.5
20260506114624 55 139 1.0 5.0 0.00 0.09 0.00 92 1007.5
20260506114525 55 134 1.0 5.0 0.00 0.09 0.00 92 1007.5
20260506114330 55 161 1.0 5.0 0.00 0.09 0.00 92 1007.4
20260506114218 55 159 1.0 5.0 0.00 0.09 0.00 91 1007.5
20260506114118 55 180 1.0 5.0 0.00 0.09 0.00 92 1007.5
20260506114045 55 178 1.0 5.0 0.00 0.09 0.00 92 1007.5
20260506114023 55 159 1.0 5.0 0.00 0.09 0.00 93 1007.5
20260506113811 55 162 1.0 5.0 0.00 0.09 0.00 93 1007.5
20260506113708 55 161 1.0 5.0 0.00 0.09 0.00 93 1007.5
20260506113609 55 140 1.0 7.0 0.00 0.09 0.00 93 1007.5
20260506113507 55 134 1.0 7.0 0.00 0.09 0.00 93 1007.5
20260506113302 55 164 1.0 7.0 0.00 0.09 0.00 93 1007.4
20260506113202 55 169 1.0 7.0 0.00 0.09 0.00 93 1007.3
20260506113101 55 169 1.0 7.0 0.00 0.09 0.00 93 1007.3
20260506113002 55 176 1.0 7.0 0.00 0.09 0.00 93 1007.3
20260506112758 54 182 1.0 7.0 0.00 0.09 0.00 94 1007.4
20260506112655 54 182 1.0 7.0 0.00 0.09 0.00 94 1007.4
20260506112557 54 190 1.0 7.0 0.00 0.09 0.00 94 1007.4
20260506112457 54 194 1.0 7.0 0.00 0.09 0.00 94 1007.4
20260506112246 54 153 1.0 7.0 0.00 0.09 0.00 94 1007.4
20260506112147 54 144 1.0 7.0 0.00 0.09 0.00 94 1007.4
20260506112046 54 130 1.0 7.0 0.00 0.09 0.00 94 1007.4
20260506111944 54 163 1.0 7.0 0.00 0.09 0.00 94 1007.4
20260506111737 54 155 1.0 7.0 0.00 0.09 0.00 94 1007.4
20260506111637 54 108 1.0 6.0 0.00 0.09 0.00 95 1007.4
20260506111535 54 155 2.0 6.0 0.00 0.09 0.00 95 1007.5
20260506111436 54 157 2.0 6.0 0.00 0.09 0.00 95 1007.5
20260506111231 54 157 2.0 6.0 0.00 0.09 0.00 95 1007.4
20260506111129 54 186 1.0 6.0 0.00 0.09 0.00 95 1007.4
20260506111030 54 177 1.0 6.0 0.00 0.09 0.00 95 1007.3
20260506110929 54 176 1.0 6.0 0.00 0.09 0.00 96 1007.4
20260506110720 54 186 1.0 6.0 0.00 0.09 0.00 96 1007.4
20260506110621 54 190 2.0 6.0 0.00 0.09 0.00 96 1007.4
20260506110521 54 175 2.0 6.0 0.00 0.09 0.00 96 1007.4
20260506110420 54 160 2.0 6.0 0.00 0.09 0.00 97 1007.4
20260506110213 54 148 1.0 6.0 0.00 0.09 0.00 97 1007.3
20260506110115 54 148 1.0 6.0 0.00 0.09 0.00 97 1007.3
20260506110013 54 148 1.0 6.0 0.00 0.09 0.00 97 1007.3
20260506105914 54 166 1.0 6.0 0.00 0.09 0.00 98 1007.3
20260506105711 53 178 0.0 6.0 0.00 0.09 0.00 98 1007.4
20260506105608 53 123 0.0 5.0 0.00 0.09 0.00 98 1007.5
20260506105508 53 133 0.0 2.0 0.00 0.09 0.00 99 1007.5
20260506105433 53 126 0.0 0.0 0.00 0.09 0.00 98 1007.5
20260506105413 53 126 0.0 0.0 0.00 0.09 0.00 98 1007.4
20260506105157 53 126 0.0 0.0 0.00 0.09 0.00 98 1007.4
20260506105059 53 126 0.0 0.0 0.00 0.09 0.00 98 1007.4
20260506104957 53 126 0.0 0.0 0.00 0.09 0.00 98 1007.4
20260506104920 53 126 0.0 0.0 0.00 0.09 0.00 98 1007.4
20260506104859 53 126 0.0 0.0 0.00 0.09 0.00 98 1007.5
20260506104655 53 126 0.0 0.0 0.00 0.09 0.00 98 1007.5
20260506104551 53 126 0.0 0.0 0.00 0.09 0.00 98 1007.5
20260506104453 53 126 0.0 0.0 0.00 0.09 0.00 98 1007.5
20260506104349 53 126 0.0 0.0 0.00 0.09 0.00 98 1007.5
20260506104148 53 126 0.0 0.0 0.00 0.09 0.00 98 1007.5
20260506104046 53 126 0.0 0.0 0.00 0.09 0.00 98 1007.5
20260506103946 53 126 0.0 0.0 0.00 0.09 0.00 98 1007.4
20260506103844 53 126 0.0 0.0 0.00 0.09 0.00 98 1007.4
20260506103635 53 126 0.0 0.0 0.00 0.09 0.00 98 1007.4
20260506103535 53 126 0.0 0.0 0.00 0.09 0.00 98 1007.4
20260506103437 53 126 0.0 0.0 0.00 0.09 0.00 98 1007.4
20260506103335 53 126 0.0 0.0 0.00 0.09 0.00 99 1007.4
20260506103129 53 126 0.0 0.0 0.00 0.09 0.00 99 1007.3
20260506103030 53 126 0.0 0.0 0.00 0.09 0.00 99 1007.3
20260506102930 53 126 0.0 0.0 0.00 0.09 0.00 99 1007.3
20260506102829 53 126 0.0 0.0 0.00 0.09 0.00 98 1007.3
20260506102627 53 126 0.0 0.0 0.00 0.09 0.00 98 1007.2
20260506102523 53 126 0.0 0.0 0.00 0.09 0.00 98 1007.2
20260506102424 53 126 0.0 0.0 0.00 0.09 0.00 98 1007.2
20260506102322 53 126 0.0 0.0 0.00 0.09 0.00 98 1007.2
20260506102109 52 126 0.0 0.0 0.00 0.09 0.00 98 1007.2
20260506102011 53 126 0.0 0.0 0.00 0.09 0.00 98 1007.2
20260506101910 52 126 0.0 0.0 0.00 0.09 0.00 98 1007.3
20260506101807 52 126 0.0 0.0 0.00 0.09 0.00 98 1007.2
20260506101604 52 126 0.0 0.0 0.00 0.09 0.00 98 1007.3
20260506101503 52 126 0.0 0.0 0.00 0.09 0.00 98 1007.3
20260506101405 52 126 0.0 0.0 0.00 0.09 0.00 98 1007.3
20260506101301 52 126 0.0 0.0 0.00 0.09 0.00 98 1007.3
20260506101058 52 126 0.0 0.0 0.00 0.09 0.00 98 1007.2
20260506100959 52 126 0.0 0.0 0.00 0.09 0.00 98 1007.3
20260506100858 52 126 0.0 0.0 0.00 0.09 0.00 98 1007.2
20260506100756 52 126 0.0 0.0 0.00 0.09 0.00 98 1007.3
20260506100551 52 126 0.0 0.0 0.00 0.09 0.00 98 1007.3
20260506100452 52 126 0.0 0.0 0.00 0.09 0.00 98 1007.3
20260506100352 52 126 0.0 0.0 0.00 0.09 0.00 98 1007.3
20260506100250 52 126 0.0 0.0 0.00 0.09 0.00 98 1007.3
20260506100049 52 126 0.0 0.0 0.00 0.09 0.00 98 1007.3
20260506095947 52 126 0.0 0.0 0.00 0.09 0.00 98 1007.3
20260506095845 52 126 0.0 0.0 0.00 0.09 0.00 98 1007.3
20260506095744 52 126 0.0 0.0 0.00 0.09 0.00 98 1007.3
20260506095541 52 126 0.0 0.0 0.00 0.09 0.00 98 1007.2
20260506095441 52 126 0.0 0.0 0.00 0.09 0.00 98 1007.2
20260506095340 52 126 0.0 0.0 0.00 0.09 0.00 98 1007.2
20260506095239 52 126 0.0 0.0 0.00 0.09 0.00 97 1007.2
20260506095037 52 126 0.0 0.0 0.00 0.09 0.00 97 1007.2
20260506094933 52 126 0.0 0.0 0.00 0.09 0.00 97 1007.2
20260506094835 52 126 0.0 0.0 0.00 0.09 0.00 97 1007.2
20260506094731 52 126 0.0 0.0 0.00 0.09 0.00 97 1007.2
20260506094633 52 126 0.0 0.0 0.00 0.09 0.00 97 1007.3
20260506094529 52 126 0.0 0.0 0.00 0.09 0.00 97 1007.2
20260506094328 52 126 0.0 0.0 0.00 0.09 0.00 97 1007.2
20260506094227 52 126 0.0 0.0 0.00 0.09 0.00 98 1007.2
20260506094023 52 126 0.0 0.0 0.00 0.09 0.00 98 1007.3
20260506093923 52 126 0.0 0.0 0.00 0.09 0.00 98 1007.3
20260506093823 52 126 0.0 0.0 0.00 0.09 0.00 98 1007.2
20260506093719 52 126 0.0 0.0 0.00 0.09 0.00 98 1007.2
20260506093620 52 126 0.0 0.0 0.00 0.09 0.00 98 1007.2
20260506093519 52 126 0.0 0.0 0.00 0.09 0.00 98 1007.3
20260506093420 52 126 0.0 0.0 0.00 0.09 0.00 98 1007.3
20260506093321 52 126 0.0 0.0 0.00 0.09 0.00 97 1007.4
20260506093217 52 126 0.0 0.0 0.00 0.09 0.00 97 1007.3
20260506093119 52 126 0.0 0.0 0.00 0.09 0.00 97 1007.2
20260506093016 52 126 0.0 0.0 0.00 0.09 0.00 97 1007.2
20260506092914 52 126 0.0 0.0 0.00 0.09 0.00 97 1007.2
20260506092810 52 126 0.0 0.0 0.00 0.09 0.00 97 1007.2
20260506092709 52 126 0.0 0.0 0.00 0.09 0.00 97 1007.2
20260506092611 52 126 0.0 0.0 0.00 0.09 0.00 97 1007.1
20260506092511 52 126 0.0 0.0 0.00 0.09 0.00 97 1007.1
20260506092409 52 126 0.0 0.0 0.00 0.09 0.00 97 1007.2
20260506092309 52 126 0.0 0.0 0.00 0.09 0.00 97 1007.1
20260506092205 52 126 0.0 0.0 0.00 0.09 0.00 97 1007.2
20260506092107 52 126 0.0 1.0 0.00 0.09 0.00 97 1007.2
20260506092004 52 126 0.0 1.0 0.00 0.09 0.00 97 1007.3
20260506091903 52 126 0.0 1.0 0.00 0.09 0.00 97 1007.3
20260506091805 52 126 0.0 1.0 0.00 0.09 0.00 96 1007.3
20260506091705 52 126 0.0 1.0 0.00 0.09 0.00 96 1007.2
20260506091605 52 126 0.0 1.0 0.00 0.09 0.00 96 1007.2
20260506091502 52 126 0.0 1.0 0.00 0.09 0.00 96 1007.3
20260506091403 52 126 0.0 1.0 0.00 0.09 0.00 96 1007.3
20260506091301 52 126 0.0 1.0 0.00 0.09 0.00 96 1007.3
20260506091159 52 126 0.0 1.0 0.00 0.09 0.00 96 1007.3
20260506091057 53 126 0.0 0.0 0.00 0.09 0.00 97 1007.3
20260506090956 53 126 0.0 0.0 0.00 0.09 0.00 97 1007.2
20260506090857 53 126 0.0 0.0 0.00 0.09 0.00 96 1007.2
20260506090755 53 126 0.0 0.0 0.00 0.09 0.00 96 1007.2
20260506090651 53 126 0.0 0.0 0.00 0.09 0.00 96 1007.2
20260506090552 53 126 0.0 0.0 0.00 0.09 0.00 96 1007.3
20260506090451 53 126 0.0 0.0 0.00 0.09 0.00 96 1007.3
20260506090349 53 126 0.0 0.0 0.00 0.09 0.00 96 1007.3
20260506090249 53 126 0.0 0.0 0.00 0.09 0.00 96 1007.3
20260506090150 53 126 0.0 0.0 0.00 0.09 0.00 96 1007.3
20260506090049 53 126 0.0 0.0 0.00 0.09 0.00 95 1007.3
20260506085949 53 126 0.0 0.0 0.00 0.09 0.00 95 1007.3
20260506085847 53 126 0.0 0.0 0.00 0.09 0.00 95 1007.4
20260506085746 53 126 0.0 0.0 0.00 0.09 0.00 95 1007.3
20260506085645 53 126 0.0 0.0 0.00 0.09 0.00 95 1007.4
20260506085545 53 126 0.0 0.0 0.00 0.09 0.00 95 1007.4
20260506085443 53 126 0.0 0.0 0.00 0.09 0.00 95 1007.5
20260506085343 53 126 0.0 0.0 0.00 0.09 0.00 95 1007.5
20260506085240 53 126 0.0 0.0 0.00 0.09 0.00 95 1007.5
20260506085034 54 126 0.0 0.0 0.00 0.09 0.00 96 1007.5
20260506084931 54 126 0.0 0.0 0.00 0.09 0.00 95 1007.5
20260506084831 54 126 0.0 0.0 0.00 0.09 0.00 95 1007.5
20260506084730 54 126 0.0 0.0 0.00 0.09 0.00 95 1007.5
20260506084630 54 126 0.0 0.0 0.00 0.09 0.00 95 1007.5
20260506084529 54 126 0.0 0.0 0.00 0.09 0.00 95 1007.5
20260506084425 54 126 0.0 1.0 0.00 0.09 0.00 95 1007.4
20260506084326 54 126 0.0 1.0 0.00 0.09 0.00 95 1007.5
20260506084225 54 126 0.0 1.0 0.00 0.09 0.00 95 1007.5
20260506084129 54 126 0.0 1.0 0.00 0.09 0.00 96 1007.5
20260506084108 54 126 0.0 1.0 0.00 0.09 0.00 96 1007.5
20260506083920 54 126 0.0 1.0 0.00 0.09 0.00 96 1007.5
20260506083821 54 126 0.0 1.0 0.00 0.09 0.00 96 1007.5
20260506083720 54 126 0.0 1.0 0.00 0.09 0.00 96 1007.5
20260506083620 54 126 0.0 1.0 0.00 0.09 0.00 96 1007.4
20260506083519 54 126 0.0 0.0 0.00 0.09 0.00 96 1007.5
20260506083421 54 126 0.0 0.0 0.00 0.09 0.00 96 1007.4
20260506083321 54 126 0.0 0.0 0.00 0.09 0.00 96 1007.4
20260506083217 54 126 0.0 0.0 0.00 0.09 0.00 96 1007.4
20260506083117 54 126 0.0 0.0 0.00 0.09 0.00 96 1007.5
20260506083017 54 126 0.0 0.0 0.00 0.09 0.00 95 1007.5
20260506082918 54 126 0.0 0.0 0.00 0.09 0.00 95 1007.5
20260506082818 54 126 0.0 0.0 0.00 0.09 0.00 96 1007.5
20260506082717 54 126 0.0 0.0 0.00 0.09 0.00 96 1007.5
20260506082619 54 126 0.0 0.0 0.00 0.09 0.00 95 1007.5
20260506082517 54 126 0.0 0.0 0.00 0.09 0.00 95 1007.5
20260506082414 54 126 0.0 0.0 0.00 0.09 0.00 95 1007.6
20260506082315 54 126 0.0 0.0 0.00 0.09 0.00 95 1007.5
20260506082217 54 126 0.0 1.0 0.00 0.09 0.00 95 1007.5
20260506082110 55 126 0.0 1.0 0.00 0.09 0.00 95 1007.5
20260506082009 55 126 0.0 1.0 0.00 0.09 0.00 95 1007.4
20260506081910 55 126 0.0 3.0 0.00 0.09 0.00 95 1007.4
20260506081809 55 126 0.0 3.0 0.00 0.09 0.00 95 1007.4
20260506081709 55 126 0.0 3.0 0.00 0.09 0.00 95 1007.4
20260506081607 55 126 0.0 3.0 0.00 0.09 0.00 95 1007.4
20260506081508 55 126 0.0 3.0 0.00 0.09 0.00 95 1007.4
20260506081407 55 126 0.0 3.0 0.00 0.09 0.00 95 1007.4
20260506081308 55 126 0.0 3.0 0.00 0.09 0.00 95 1007.4
20260506081207 55 126 0.0 3.0 0.00 0.09 0.00 95 1007.3
20260506081107 55 126 0.0 3.0 0.00 0.09 0.00 94 1007.3
20260506081007 55 126 0.0 3.0 0.00 0.09 0.00 94 1007.4
20260506080907 55 126 0.0 0.0 0.00 0.09 0.00 94 1007.4
20260506080808 55 126 0.0 0.0 0.00 0.09 0.00 94 1007.5
20260506080707 55 126 0.0 0.0 0.00 0.09 0.00 94 1007.4
20260506080624 55 126 0.0 0.0 0.00 0.09 0.00 94 1007.4
20260506080603 55 126 0.0 0.0 0.00 0.09 0.00 94 1007.4
20260506080407 55 126 0.0 0.0 0.00 0.09 0.00 94 1007.4
20260506080400 55 126 0.0 0.0 0.00 0.09 0.00 94 1007.4
20260506080326 55 126 0.0 0.0 0.00 0.09 0.00 94 1007.4
20260506080207 55 126 0.0 0.0 0.00 0.09 0.00 94 1007.4
20260506080108 55 126 0.0 0.0 0.00 0.09 0.00 94 1007.4
20260506073359 55 126 0.0 2.0 0.00 0.09 0.00 94 1007.6
20260506073300 55 126 0.0 2.0 0.00 0.09 0.00 93 1007.6
20260506073159 55 126 0.0 2.0 0.00 0.09 0.00 94 1007.5
20260506073124 55 94 0.0 2.0 0.00 0.09 0.00 94 1007.5
20260506073101 55 94 0.0 0.0 0.00 0.09 0.00 95 1007.5
20260506072900 55 94 0.0 0.0 0.00 0.09 0.00 95 1007.5
20260506072759 55 94 0.0 0.0 0.00 0.09 0.00 95 1007.5
20260506072700 55 94 0.0 0.0 0.00 0.09 0.00 94 1007.5
20260506072559 55 94 0.0 0.0 0.00 0.09 0.00 94 1007.5
20260506072358 55 94 0.0 0.0 0.00 0.09 0.00 94 1007.5
20260506072301 55 94 0.0 0.0 0.00 0.09 0.00 94 1007.5
20260506072157 55 94 0.0 0.0 0.00 0.09 0.00 94 1007.5
20260506072055 55 94 0.0 0.0 0.00 0.09 0.00 94 1007.5
20260506071856 55 94 0.0 0.0 0.00 0.09 0.00 94 1007.4
20260506071755 55 94 0.0 0.0 0.00 0.09 0.00 94 1007.5
20260506071655 55 94 0.0 0.0 0.00 0.09 0.00 94 1007.4
20260506071556 55 94 0.0 0.0 0.00 0.09 0.00 94 1007.4
20260506071451 55 94 0.0 0.0 0.00 0.09 0.00 94 1007.4
20260506071351 55 94 0.0 0.0 0.00 0.09 0.00 94 1007.4
20260506071252 55 94 0.0 0.0 0.00 0.09 0.00 94 1007.4
20260506071152 55 94 0.0 0.0 0.00 0.09 0.00 94 1007.3
20260506071117 55 94 0.0 0.0 0.00 0.09 0.00 93 1007.4
20260506070952 55 94 0.0 0.0 0.00 0.09 0.00 93 1007.3
20260506070850 55 94 0.0 0.0 0.00 0.09 0.00 93 1007.3
20260506070752 55 94 0.0 0.0 0.00 0.09 0.00 93 1007.4
20260506070651 55 94 0.0 0.0 0.00 0.09 0.00 93 1007.3
20260506070552 55 94 0.0 0.0 0.00 0.09 0.00 93 1007.3
20260506070451 55 94 0.0 0.0 0.00 0.09 0.00 93 1007.3
20260506070350 55 94 0.0 1.0 0.00 0.09 0.00 93 1007.3
20260506070243 55 94 0.0 1.0 0.00 0.09 0.00 93 1007.2
20260506070143 55 94 0.0 1.0 0.00 0.09 0.00 93 1007.2
20260506062349 57 101 1.0 4.0 0.00 0.09 0.00 91 1007.2
20260506062250 57 101 1.0 4.0 0.00 0.09 0.00 91 1007.2
20260506062149 57 101 1.0 4.0 0.00 0.09 0.00 91 1007.2
20260506062050 57 101 1.0 4.0 0.00 0.09 0.00 91 1007.2
20260506061848 57 101 1.0 4.0 0.00 0.09 0.00 91 1007.3
20260506061747 57 100 1.0 3.0 0.00 0.09 0.00 91 1007.3
20260506061647 57 100 0.0 3.0 0.00 0.09 0.00 91 1007.2
20260506061606 57 103 0.0 3.0 0.00 0.09 0.00 91 1007.2
20260506061546 57 103 0.0 3.0 0.00 0.09 0.00 91 1007.2
20260506061344 57 103 0.0 3.0 0.00 0.09 0.00 91 1007.1
20260506061246 57 103 0.0 3.0 0.00 0.09 0.00 91 1007.1
20260506061143 57 103 0.0 3.0 0.00 0.09 0.00 91 1007.0
20260506061103 57 103 0.0 3.0 0.00 0.09 0.00 91 1007.1
20260506061042 57 111 0.0 3.0 0.00 0.09 0.00 91 1007.1
20260506060838 57 91 0.0 0.0 0.00 0.09 0.00 91 1007.1
20260506060739 56 91 0.0 0.0 0.00 0.09 0.00 91 1007.1
20260506060638 56 91 0.0 3.0 0.00 0.09 0.00 91 1007.2
20260506060535 56 91 0.0 3.0 0.00 0.09 0.00 91 1007.1
20260506060429 56 91 0.0 3.0 0.00 0.09 0.00 92 1007.0
20260506060330 56 91 0.0 3.0 0.00 0.09 0.00 91 1007.0
20260506060229 56 90 0.0 3.0 0.00 0.09 0.00 92 1006.9
20260506060127 56 90 0.0 3.0 0.00 0.09 0.00 92 1006.9
20260506051331 56 101 0.0 0.0 0.00 0.09 0.00 93 1007.2
20260506051229 56 101 0.0 0.0 0.00 0.09 0.00 93 1007.2
20260506051129 56 101 0.0 0.0 0.00 0.09 0.00 93 1007.1
20260506051027 56 101 0.0 3.0 0.00 0.09 0.00 93 1007.1
20260506050926 56 101 0.0 3.0 0.00 0.09 0.00 93 1007.1
20260506050826 56 101 0.0 3.0 0.00 0.09 0.00 93 1007.1
20260506050724 56 101 0.0 3.0 0.00 0.09 0.00 93 1007.1
20260506050624 56 101 0.0 3.0 0.00 0.09 0.00 92 1007.2
20260506050521 56 101 0.0 3.0 0.00 0.09 0.00 92 1007.2
20260506050419 56 101 0.0 3.0 0.00 0.09 0.00 92 1007.2
20260506050320 56 101 0.0 3.0 0.00 0.09 0.00 92 1007.3
20260506050218 56 101 0.0 3.0 0.00 0.09 0.00 92 1007.3
20260506050110 56 101 0.0 3.0 0.00 0.09 0.00 92 1007.3
20260506045102 56 101 0.0 2.0 0.00 0.09 0.00 92 1007.1
20260506045037 56 101 0.0 0.0 0.00 0.09 0.00 91 1007.2
20260506044900 56 101 0.0 0.0 0.00 0.09 0.00 91 1007.2
20260506044758 56 101 0.0 0.0 0.00 0.09 0.00 92 1007.3
20260506044656 56 101 0.0 0.0 0.00 0.09 0.00 92 1007.2
20260506044556 56 101 0.0 0.0 0.00 0.09 0.00 92 1007.3
20260506044453 56 101 0.0 0.0 0.00 0.09 0.00 92 1007.2
20260506044354 56 101 0.0 0.0 0.00 0.09 0.00 92 1007.2
20260506044312 56 101 0.0 0.0 0.00 0.09 0.00 92 1007.1
20260506044252 56 101 0.0 0.0 0.00 0.09 0.00 92 1007.1
20260506044052 56 101 0.0 0.0 0.00 0.09 0.00 92 1007.1
20260506044032 56 101 0.0 0.0 0.00 0.09 0.00 92 1007.1
20260506043848 56 101 0.0 0.0 0.00 0.09 0.00 92 1007.1
20260506043746 56 101 0.0 0.0 0.00 0.09 0.00 92 1007.1
20260506043644 56 101 0.0 0.0 0.00 0.09 0.00 92 1007.1
20260506043544 56 101 0.0 0.0 0.00 0.09 0.00 92 1007.1
20260506043341 56 101 0.0 0.0 0.00 0.09 0.00 92 1007.2
20260506043239 56 101 0.0 0.0 0.00 0.09 0.00 92 1007.2
20260506043139 56 101 0.0 0.0 0.00 0.09 0.00 92 1007.3
20260506043048 56 101 0.0 0.0 0.00 0.09 0.00 92 1007.3
20260506043027 56 101 0.0 0.0 0.00 0.09 0.00 92 1007.3
20260506042837 56 101 0.0 0.0 0.00 0.09 0.00 92 1007.3
20260506042733 56 101 0.0 0.0 0.00 0.09 0.00 93 1007.3
20260506042634 56 101 0.0 0.0 0.00 0.09 0.00 93 1007.3
20260506042531 56 101 0.0 0.0 0.00 0.09 0.00 93 1007.3
20260506042330 56 101 0.0 0.0 0.00 0.09 0.00 94 1007.3
20260506042226 56 101 0.0 0.0 0.00 0.09 0.00 93 1007.3
20260506042126 56 101 0.0 0.0 0.00 0.09 0.00 94 1007.3
20260506042024 56 101 0.0 0.0 0.00 0.09 0.00 93 1007.3
20260506041824 56 101 0.0 0.0 0.00 0.09 0.00 94 1007.2
20260506041721 56 101 0.0 0.0 0.00 0.09 0.00 94 1007.2
20260506041629 56 101 0.0 0.0 0.00 0.09 0.00 94 1007.2
20260506041520 56 101 0.0 0.0 0.00 0.09 0.00 94 1007.1
20260506041317 56 101 0.0 0.0 0.00 0.09 0.00 94 1007.2
20260506041245 56 101 0.0 0.0 0.00 0.09 0.00 94 1007.2
20260506041114 56 101 0.0 0.0 0.00 0.09 0.00 94 1007.2
20260506041037 56 101 0.0 0.0 0.00 0.09 0.00 94 1007.2
20260506041016 56 101 0.0 0.0 0.00 0.09 0.00 93 1007.2
20260506040813 56 101 0.0 0.0 0.00 0.09 0.00 94 1007.2
20260506040713 56 101 0.0 0.0 0.00 0.09 0.00 94 1007.1
20260506040611 56 101 0.0 0.0 0.00 0.09 0.00 94 1007.1
20260506040533 56 101 0.0 0.0 0.00 0.09 0.00 94 1007.2
20260506040512 56 101 0.0 0.0 0.00 0.09 0.00 94 1007.2
20260506040312 56 101 0.0 0.0 0.00 0.09 0.00 93 1007.2
20260506040211 55 101 0.0 0.0 0.00 0.09 0.00 93 1007.2
20260506040112 55 101 0.0 0.0 0.00 0.09 0.00 94 1007.2
20260506040010 55 101 0.0 0.0 0.00 0.09 0.00 94 1007.2
20260506035911 55 101 0.0 0.0 0.00 0.09 0.09 93 1007.2
20260506035812 55 101 0.0 0.0 0.00 0.09 0.09 93 1007.3
20260506035712 55 101 0.0 0.0 0.00 0.09 0.09 93 1007.2
20260506035608 55 101 0.0 0.0 0.00 0.09 0.09 94 1007.2
20260506035506 55 101 0.0 0.0 0.00 0.09 0.09 94 1007.2
20260506035407 55 101 0.0 0.0 0.00 0.09 0.09 94 1007.2
20260506035306 55 101 0.0 0.0 0.00 0.09 0.09 94 1007.2
20260506035208 55 101 0.0 0.0 0.00 0.09 0.09 94 1007.2
20260506035106 55 101 0.0 0.0 0.00 0.09 0.09 94 1007.2
20260506035007 55 101 0.0 0.0 0.00 0.09 0.09 94 1007.2
20260506034906 55 101 0.0 0.0 0.00 0.09 0.09 94 1007.2
20260506034806 55 101 0.0 0.0 0.00 0.09 0.09 94 1007.3
20260506034708 55 101 0.0 0.0 0.00 0.09 0.09 94 1007.2
20260506034607 56 101 0.0 0.0 0.00 0.09 0.09 94 1007.3
20260506034506 55 101 0.0 0.0 0.00 0.09 0.09 94 1007.3
20260506034406 55 101 0.0 0.0 0.00 0.09 0.09 94 1007.3
20260506034307 56 101 0.0 0.0 0.00 0.09 0.09 94 1007.3
20260506034207 56 101 0.0 0.0 0.00 0.09 0.09 94 1007.3
20260506034106 56 101 0.0 0.0 0.00 0.09 0.09 94 1007.2
20260506034006 56 101 0.0 0.0 0.00 0.09 0.09 94 1007.2
20260506033906 56 101 0.0 0.0 0.00 0.09 0.09 94 1007.3
20260506033806 55 101 0.0 0.0 0.00 0.09 0.09 94 1007.3
20260506033708 56 101 0.0 0.0 0.00 0.09 0.09 94 1007.3
20260506033607 55 101 0.0 0.0 0.00 0.09 0.09 93 1007.2
20260506033506 55 101 0.0 0.0 0.00 0.09 0.09 94 1007.3
20260506033407 55 101 0.0 0.0 0.00 0.09 0.09 94 1007.2
20260506033307 55 101 0.0 0.0 0.00 0.09 0.09 94 1007.3
20260506033207 55 101 0.0 0.0 0.00 0.09 0.09 94 1007.3
20260506033108 55 101 0.0 0.0 0.00 0.09 0.09 94 1007.3
20260506033007 55 101 0.0 0.0 0.00 0.09 0.09 94 1007.2
20260506032906 55 101 0.0 0.0 0.00 0.09 0.09 94 1007.2
20260506032806 55 101 0.0 0.0 0.00 0.09 0.09 94 1007.3
20260506032706 55 101 0.0 0.0 0.00 0.09 0.09 94 1007.3
20260506032605 55 101 0.0 0.0 0.00 0.09 0.09 94 1007.3
20260506032507 55 101 0.0 0.0 0.00 0.09 0.09 94 1007.2
20260506032404 55 101 0.0 0.0 0.00 0.09 0.09 94 1007.2
20260506032301 55 101 0.0 0.0 0.00 0.09 0.09 95 1007.3
20260506032159 55 101 0.0 0.0 0.00 0.09 0.09 95 1007.3
20260506032057 55 101 0.0 0.0 0.00 0.09 0.09 95 1007.3
20260506031957 55 101 0.0 0.0 0.00 0.09 0.09 95 1007.3
20260506031758 55 101 0.0 0.0 0.00 0.09 0.09 95 1007.3
20260506031656 55 101 0.0 0.0 0.00 0.09 0.09 95 1007.4
20260506031554 55 101 0.0 0.0 0.00 0.09 0.09 95 1007.4
20260506031453 55 101 0.0 0.0 0.00 0.09 0.09 95 1007.4
20260506031245 55 101 0.0 0.0 0.00 0.09 0.09 95 1007.4
20260506031145 55 101 0.0 0.0 0.00 0.09 0.09 95 1007.4
20260506031045 55 101 0.0 0.0 0.00 0.09 0.09 96 1007.4
20260506030942 55 101 0.0 0.0 0.00 0.09 0.09 96 1007.4
20260506030739 55 101 0.0 0.0 0.00 0.09 0.09 96 1007.4
20260506030638 55 101 0.0 0.0 0.00 0.09 0.09 96 1007.4
20260506030537 55 101 0.0 0.0 0.00 0.09 0.09 96 1007.5
20260506030458 55 101 0.0 0.0 0.00 0.09 0.09 96 1007.4
20260506030439 55 101 0.0 0.0 0.00 0.09 0.09 96 1007.4
20260506030234 55 101 0.0 0.0 0.00 0.09 0.09 96 1007.3
20260506030133 55 101 0.0 0.0 0.00 0.09 0.09 96 1007.3
20260506030032 55 101 0.0 0.0 0.00 0.09 0.09 96 1007.3
20260506025930 55 101 0.0 0.0 0.00 0.09 0.09 96 1007.3
20260506025716 55 101 0.0 0.0 0.00 0.09 0.09 96 1007.4
20260506025614 55 101 0.0 0.0 0.00 0.09 0.09 96 1007.4
20260506025514 55 101 0.0 0.0 0.00 0.09 0.09 96 1007.4
20260506025440 55 101 0.0 0.0 0.00 0.09 0.09 96 1007.5
20260506025419 54 101 0.0 0.0 0.00 0.09 0.09 96 1007.4
20260506025212 54 101 0.0 0.0 0.00 0.09 0.09 96 1007.4
20260506025112 54 101 0.0 0.0 0.00 0.09 0.09 96 1007.4
20260506025014 54 101 0.0 0.0 0.00 0.09 0.09 96 1007.4
20260506024910 54 101 0.0 0.0 0.00 0.09 0.09 96 1007.3
20260506024708 54 101 0.0 0.0 0.00 0.09 0.09 96 1007.2
20260506024608 54 101 0.0 0.0 0.00 0.09 0.09 96 1007.2
20260506024507 54 101 0.0 0.0 0.00 0.09 0.09 96 1007.2
20260506024430 54 101 0.0 0.0 0.00 0.09 0.09 96 1007.1
20260506024407 54 101 0.0 0.0 0.00 0.09 0.09 96 1007.1
20260506024156 54 101 0.0 0.0 0.00 0.09 0.09 96 1007.1
20260506024057 54 101 0.0 0.0 0.00 0.09 0.09 96 1007.0
20260506023957 54 101 0.0 0.0 0.00 0.09 0.09 96 1007.1
20260506023854 54 101 0.0 0.0 0.00 0.09 0.09 96 1007.1
20260506023653 54 101 0.0 0.0 0.00 0.09 0.09 96 1007.1
20260506023551 54 101 0.0 0.0 0.00 0.09 0.09 96 1007.1
20260506023450 54 101 0.0 0.0 0.00 0.09 0.09 96 1007.1
20260506023412 54 101 0.0 0.0 0.00 0.09 0.09 96 1007.2
20260506023351 54 101 0.0 0.0 0.00 0.09 0.09 96 1007.2
20260506023144 54 101 0.0 0.0 0.00 0.09 0.09 96 1007.2
20260506023045 54 101 0.0 0.0 0.00 0.09 0.09 96 1007.1
20260506022944 54 101 0.0 0.0 0.00 0.09 0.09 96 1007.1
20260506022842 54 101 0.0 0.0 0.00 0.09 0.09 96 1007.1
20260506022629 54 101 0.0 0.0 0.00 0.09 0.09 96 1007.0
20260506022531 54 101 0.0 0.0 0.00 0.09 0.09 96 1007.0
20260506022431 54 101 0.0 0.0 0.00 0.09 0.09 96 1007.0
20260506022329 54 101 0.0 0.0 0.00 0.09 0.09 96 1007.0
20260506022126 54 101 0.0 0.0 0.00 0.09 0.09 96 1006.9
20260506022024 54 101 0.0 0.0 0.00 0.09 0.09 96 1007.0
20260506021924 54 101 0.0 0.0 0.00 0.09 0.09 96 1007.0
20260506021823 54 101 0.0 0.0 0.00 0.09 0.09 96 1006.9
20260506021617 54 101 0.0 0.0 0.00 0.09 0.09 96 1006.9
20260506021514 54 101 0.0 0.0 0.00 0.09 0.09 96 1006.9
20260506021416 54 101 0.0 0.0 0.00 0.09 0.09 96 1006.9
20260506021314 54 101 0.0 0.0 0.00 0.09 0.09 96 1007.0
20260506021108 54 101 0.0 0.0 0.00 0.09 0.09 95 1006.9
20260506021008 54 101 0.0 0.0 0.00 0.09 0.09 95 1006.9
20260506020909 54 101 0.0 0.0 0.00 0.09 0.09 95 1007.0
20260506020807 54 101 0.0 0.0 0.00 0.09 0.09 95 1007.0
20260506020603 54 101 0.0 0.0 0.00 0.09 0.09 95 1007.1
20260506020502 54 101 0.0 0.0 0.00 0.09 0.09 95 1007.1
20260506020403 54 101 0.0 0.0 0.00 0.09 0.09 95 1007.1
20260506020300 54 101 0.0 0.0 0.00 0.09 0.09 95 1007.1
20260506015957 55 101 0.0 0.0 0.00 0.09 0.09 95 1007.0
20260506015856 55 101 0.0 0.0 0.00 0.09 0.09 95 1007.0
20260506015755 55 101 0.0 0.0 0.00 0.09 0.09 95 1007.0
20260506015540 55 101 0.0 0.0 0.00 0.09 0.09 95 1007.0
20260506015439 55 101 0.0 0.0 0.00 0.09 0.09 94 1007.0
20260506015338 55 101 0.0 0.0 0.00 0.09 0.09 95 1006.9
20260506015305 55 101 0.0 0.0 0.00 0.09 0.09 95 1006.9
20260506015243 55 101 0.0 0.0 0.00 0.09 0.09 94 1006.9
20260506015039 55 101 0.0 0.0 0.00 0.09 0.09 94 1006.9
20260506014936 55 101 0.0 0.0 0.00 0.09 0.09 94 1006.9
20260506014838 55 101 0.0 0.0 0.00 0.09 0.09 94 1007.0
20260506014733 55 101 0.0 0.0 0.00 0.09 0.09 94 1007.0
20260506014533 56 101 0.0 0.0 0.00 0.09 0.09 94 1007.1
20260506014431 56 101 0.0 0.0 0.00 0.09 0.09 94 1007.1
20260506014330 56 101 0.0 0.0 0.00 0.09 0.09 94 1007.1
20260506014229 56 101 0.0 0.0 0.00 0.09 0.09 94 1007.1
20260506014016 56 101 0.0 0.0 0.00 0.09 0.09 94 1007.1
20260506013915 56 101 0.0 0.0 0.00 0.09 0.09 94 1007.0
20260506013817 56 101 0.0 0.0 0.00 0.09 0.09 94 1007.1
20260506013745 56 101 0.0 0.0 0.00 0.09 0.09 94 1007.0
20260506013721 56 101 0.0 0.0 0.00 0.09 0.09 93 1007.0
20260506013510 56 101 0.0 0.0 0.00 0.09 0.09 93 1007.0
20260506013410 56 101 0.0 0.0 0.00 0.09 0.09 93 1007.0
20260506013309 56 101 0.0 0.0 0.00 0.09 0.09 94 1007.0
20260506013210 55 101 0.0 0.0 0.00 0.09 0.09 94 1007.0
20260506013007 55 101 0.0 0.0 0.00 0.09 0.09 95 1007.0
20260506012909 55 101 0.0 0.0 0.00 0.09 0.09 95 1006.9
20260506012807 55 101 0.0 0.0 0.00 0.09 0.09 95 1007.0
20260506012707 55 101 0.0 0.0 0.00 0.09 0.09 95 1007.0
20260506012455 55 101 0.0 0.0 0.00 0.09 0.09 95 1006.9
20260506012354 55 101 0.0 0.0 0.00 0.09 0.09 95 1006.9
20260506012255 55 101 0.0 0.0 0.00 0.09 0.09 95 1007.0
20260506012151 55 101 0.0 0.0 0.00 0.09 0.09 95 1006.9
20260506011950 56 101 0.0 0.0 0.00 0.09 0.09 95 1007.0
20260506011847 56 101 0.0 0.0 0.00 0.09 0.09 95 1006.9
20260506011748 56 101 0.0 0.0 0.00 0.09 0.09 94 1006.8
20260506011646 56 101 0.0 0.0 0.00 0.09 0.09 95 1006.9
20260506011444 56 101 0.0 0.0 0.00 0.09 0.09 95 1006.9
20260506011341 56 101 0.0 0.0 0.00 0.09 0.09 95 1006.8
20260506011242 56 101 0.0 0.0 0.00 0.09 0.09 95 1006.8
20260506011139 56 101 0.0 0.0 0.00 0.09 0.09 94 1006.8
20260506010932 56 101 0.0 0.0 0.00 0.09 0.09 94 1006.8
20260506010832 56 101 0.0 0.0 0.00 0.09 0.09 95 1006.8
20260506010733 56 101 0.0 0.0 0.00 0.09 0.09 94 1006.7
20260506010654 56 101 0.0 0.0 0.00 0.09 0.09 94 1006.6
20260506010633 56 101 0.0 0.0 0.00 0.09 0.09 94 1006.6
20260506010429 56 101 0.0 0.0 0.00 0.09 0.09 94 1006.6
20260506010327 56 101 0.0 0.0 0.00 0.09 0.09 94 1006.6
20260506010225 56 101 0.0 0.0 0.00 0.09 0.09 94 1006.6
20260506010124 56 101 0.0 0.0 0.00 0.09 0.09 94 1006.6
20260506005919 56 101 0.0 4.0 0.00 0.09 0.09 94 1006.6
20260506005815 56 101 0.0 4.0 0.00 0.09 0.09 94 1006.6
20260506005717 56 101 0.0 4.0 0.00 0.09 0.09 93 1006.7
20260506005615 56 101 0.0 4.0 0.00 0.09 0.09 94 1006.7
20260506005406 56 101 0.0 4.0 0.00 0.09 0.09 94 1006.6
20260506005308 56 101 0.0 4.0 0.00 0.09 0.09 93 1006.6
20260506005207 57 101 0.0 4.0 0.00 0.09 0.09 94 1006.6
20260506005104 57 101 0.0 4.0 0.00 0.09 0.09 93 1006.6
20260506004901 57 101 0.0 4.0 0.00 0.09 0.09 93 1006.6
20260506004801 57 101 0.0 4.0 0.00 0.09 0.09 93 1006.6
20260506004701 57 101 0.0 4.0 0.00 0.09 0.09 93 1006.6
20260506004621 57 101 0.0 4.0 0.00 0.09 0.09 93 1006.5
20260506004601 57 101 0.0 4.0 0.00 0.09 0.09 93 1006.6
20260506004356 57 101 0.0 4.0 0.00 0.09 0.09 92 1006.5
20260506004255 57 101 0.0 4.0 0.00 0.09 0.09 93 1006.4
20260506004153 57 101 0.0 4.0 0.00 0.09 0.09 93 1006.4
20260506004053 57 101 0.0 4.0 0.00 0.09 0.09 92 1006.3
20260506003841 56 128 1.0 5.0 0.00 0.09 0.09 93 1006.5
20260506003741 56 128 1.0 5.0 0.00 0.09 0.09 93 1006.4
20260506003640 56 128 1.0 5.0 0.00 0.09 0.09 93 1006.4
20260506003540 56 128 1.0 6.0 0.00 0.09 0.09 93 1006.4
20260506003340 56 74 1.0 6.0 0.00 0.09 0.09 94 1006.4
20260506003238 56 75 1.0 6.0 0.00 0.09 0.09 94 1006.4
20260506003139 56 75 1.0 6.0 0.00 0.09 0.09 94 1006.4
20260506003037 56 74 1.0 6.0 0.00 0.09 0.09 94 1006.5
20260506002834 56 96 1.0 6.0 0.00 0.09 0.09 94 1006.5
20260506002733 56 96 1.0 6.0 0.00 0.09 0.09 94 1006.6
20260506002629 56 88 0.0 6.0 0.00 0.09 0.09 95 1006.4
20260506002531 56 24 0.0 3.0 0.00 0.09 0.09 95 1006.4
20260506002313 56 24 0.0 3.0 0.00 0.09 0.09 95 1006.4
20260506002215 56 14 0.0 3.0 0.00 0.09 0.09 95 1006.4
20260506002114 56 14 0.0 3.0 0.00 0.09 0.09 95 1006.4
20260506002014 56 14 1.0 3.0 0.00 0.09 0.09 96 1006.3
20260506001916 56 342 1.0 7.0 0.00 0.09 0.09 96 1006.4
20260506001811 56 332 1.0 7.0 0.00 0.09 0.09 96 1006.3
20260506001707 56 332 1.0 7.0 0.00 0.09 0.09 96 1006.3
20260506001608 56 333 1.0 7.0 0.00 0.09 0.09 96 1006.4
20260506001507 56 333 1.0 7.0 0.00 0.09 0.09 95 1006.3
20260506001408 56 336 1.0 7.0 0.00 0.09 0.09 95 1006.3
20260506001305 56 336 1.0 7.0 0.00 0.09 0.09 95 1006.3
20260506001201 56 109 1.0 7.0 0.00 0.09 0.09 95 1006.3
20260506001103 56 113 1.0 7.0 0.00 0.09 0.09 95 1006.2
20260506001002 56 115 0.0 7.0 0.00 0.09 0.09 96 1006.3
20260506000902 56 127 0.0 2.0 0.00 0.09 0.09 95 1006.3
20260506000757 56 89 0.0 3.0 0.00 0.09 0.09 95 1006.3
20260506000656 56 89 0.0 3.0 0.00 0.09 0.09 95 1006.3
20260506000556 56 88 0.0 4.0 0.00 0.09 0.09 95 1006.3
20260506000454 56 88 1.0 8.0 0.00 0.09 0.09 95 1006.2
20260506000354 56 88 1.0 8.0 0.00 0.09 0.09 95 1006.2
20260506000249 56 88 1.0 8.0 0.00 0.09 0.09 95 1006.2
20260506000149 56 80 1.0 8.0 0.00 0.09 0.09 95 1006.2
20260506000049 56 80 1.0 8.0 0.00 0.09 0.09 95 1006.2
20260505235949 56 80 1.0 8.0 0.00 0.09 0.09 94 1006.1
20260505235852 56 87 2.0 8.0 0.00 0.09 0.09 94 1006.1
20260505235743 56 94 2.0 8.0 0.00 0.09 0.09 94 1006.0
20260505235640 56 93 2.0 8.0 0.00 0.09 0.09 94 1006.0
20260505235540 56 96 2.0 8.0 0.00 0.09 0.09 94 1006.1
20260505235439 56 64 2.0 9.0 0.00 0.09 0.09 94 1006.0
20260505235341 56 63 2.0 9.0 0.00 0.09 0.09 94 1005.9
20260505235226 56 144 2.0 9.0 0.00 0.09 0.09 94 1005.8
20260505235126 56 173 2.0 9.0 0.00 0.09 0.09 94 1005.8
20260505235026 56 173 3.0 9.0 0.00 0.09 0.09 94 1005.7
20260505234827 57 115 3.0 9.0 0.00 0.09 0.09 93 1005.6
20260505234723 57 138 2.0 9.0 0.00 0.09 0.09 93 1005.7
20260505234620 57 90 2.0 9.0 0.00 0.09 0.09 93 1005.6
20260505234520 57 71 2.0 9.0 0.00 0.09 0.09 92 1005.6
20260505234421 57 101 2.0 8.0 0.00 0.09 0.09 92 1005.5
20260505234213 57 119 2.0 8.0 0.00 0.09 0.09 91 1005.5
20260505234114 57 127 2.0 8.0 0.00 0.09 0.09 91 1005.5
20260505234014 58 121 2.0 8.0 0.00 0.09 0.09 91 1005.4
20260505233915 58 118 3.0 9.0 0.00 0.09 0.09 91 1005.4
20260505233814 58 117 3.0 9.0 0.00 0.09 0.09 90 1005.4
20260505233703 58 113 3.0 9.0 0.00 0.09 0.09 90 1005.4
20260505233605 58 60 2.0 9.0 0.00 0.09 0.09 90 1005.4
20260505233503 58 90 2.0 9.0 0.00 0.09 0.09 89 1005.3
20260505233404 58 90 2.0 9.0 0.00 0.09 0.09 89 1005.3
20260505233304 58 112 2.0 9.0 0.00 0.09 0.09 89 1005.4
20260505233159 58 92 2.0 9.0 0.00 0.09 0.09 89 1005.4
20260505233057 57 67 1.0 9.0 0.00 0.09 0.09 89 1005.4
20260505232958 57 72 1.0 7.0 0.00 0.09 0.09 91 1005.4
20260505232858 58 84 1.0 7.0 0.00 0.09 0.09 91 1005.4